EW4266 Weather Reports


time (UTC)temp
F
wind
direction
speed
knots
gust
knots
rain 1hr
in
rain 24hr
in
rain mn
in
humidity
%
barometer
mb
20260831222725 72 206 0.0 0.0 0.00 0.02 0.01 74 1017.6
20260831222627 72 206 0.0 0.0 0.00 0.02 0.01 73 1017.6
20260831222532 72 206 0.0 0.0 0.00 0.02 0.01 73 1017.6
20260831222454 72 206 0.0 0.0 0.00 0.02 0.01 71 1017.6
20260831222306 72 206 0.0 0.0 0.00 0.02 0.01 72 1017.6
20260831222218 73 206 0.0 0.0 0.00 0.02 0.01 72 1017.6
20260831222031 73 206 0.0 0.0 0.00 0.02 0.01 71 1017.6
20260831221952 73 206 0.0 0.0 0.00 0.02 0.01 70 1017.6
20260831221835 73 206 0.0 0.0 0.00 0.02 0.01 70 1017.6
20260831221756 73 206 0.0 0.0 0.00 0.02 0.01 70 1017.6
20260831221538 73 206 0.0 0.0 0.00 0.02 0.01 71 1017.6
20260831221440 73 206 0.0 0.0 0.00 0.02 0.01 70 1017.7
20260831221322 73 206 0.0 0.0 0.00 0.02 0.01 68 1017.7
20260831221244 73 206 0.0 0.0 0.00 0.02 0.01 68 1017.7
20260831221142 74 206 0.0 0.0 0.00 0.02 0.01 69 1017.7
20260831221026 74 206 0.0 0.0 0.00 0.02 0.01 68 1017.7
20260831220928 74 206 0.0 0.0 0.00 0.02 0.01 69 1017.6
20260831220823 74 206 0.0 0.0 0.00 0.02 0.01 68 1017.7
20260831220727 74 206 0.0 0.0 0.00 0.02 0.01 67 1017.7
20260831220629 74 206 0.0 0.0 0.00 0.02 0.01 67 1017.7
20260831220532 74 206 0.0 0.0 0.00 0.02 0.01 67 1017.7
20260831220454 74 206 0.0 0.0 0.00 0.02 0.01 67 1017.8
20260831220419 74 206 0.0 0.0 0.00 0.02 0.01 67 1017.8
20260831220321 74 206 0.0 0.0 0.00 0.02 0.01 68 1017.8
20260831220242 74 206 0.0 0.0 0.00 0.02 0.01 68 1017.8
20260831220112 74 206 0.0 0.0 0.00 0.02 0.01 66 1017.8
20260831220028 75 206 0.0 0.0 0.00 0.02 0.01 67 1017.8
20260831215857 75 206 0.0 0.0 0.00 0.02 0.01 63 1017.7
20260831215819 75 206 0.0 0.0 0.00 0.02 0.01 63 1017.7
20260831215650 75 206 0.0 0.9 0.00 0.02 0.01 66 1017.7
20260831215604 75 206 0.0 1.7 0.00 0.02 0.01 66 1017.6
20260831215412 76 206 0.0 2.6 0.00 0.02 0.01 65 1017.6
20260831215332 76 206 0.0 2.6 0.00 0.02 0.01 63 1017.6
20260831215214 76 206 0.0 2.6 0.00 0.02 0.01 62 1017.5
20260831215137 76 206 0.0 3.5 0.00 0.02 0.01 62 1017.5
20260831215009 77 206 0.0 3.5 0.00 0.02 0.01 61 1017.5
20260831214925 77 206 0.0 3.5 0.00 0.02 0.01 61 1017.5
20260831214734 77 206 0.9 3.5 0.00 0.02 0.01 60 1017.5
20260831214648 77 206 1.7 3.5 0.00 0.02 0.01 61 1017.6
20260831214547 77 219 1.7 3.5 0.00 0.02 0.01 60 1017.6
20260831214447 77 190 1.7 3.5 0.00 0.02 0.01 55 1017.6
20260831214348 77 179 1.7 3.5 0.00 0.02 0.01 55 1017.6
20260831214229 77 213 0.9 3.5 0.00 0.02 0.01 57 1017.6
20260831214152 77 171 0.9 3.5 0.00 0.02 0.01 57 1017.6
20260831213933 78 191 2.6 3.5 0.00 0.02 0.01 55 1017.7
20260831213856 78 182 2.6 3.5 0.00 0.02 0.01 55 1017.7
20260831213800 78 207 2.6 3.5 0.00 0.02 0.01 55 1017.7
20260831213720 78 184 1.7 3.5 0.00 0.02 0.01 55 1017.7
20260831213548 78 234 0.0 1.7 0.00 0.02 0.01 63 1017.7
20260831213423 78 300 0.0 1.7 0.00 0.02 0.01 64 1017.7
20260831213326 78 300 0.0 1.7 0.00 0.02 0.01 64 1017.7
20260831213227 78 300 0.0 1.7 0.00 0.02 0.01 63 1017.7
20260831213031 78 300 0.9 1.7 0.00 0.02 0.01 59 1017.7
20260831212933 78 300 1.7 1.7 0.00 0.02 0.01 61 1017.7
20260831212829 78 300 1.7 1.7 0.00 0.02 0.01 60 1017.7
20260831212751 78 300 1.7 1.7 0.00 0.02 0.01 62 1017.7
20260831212532 78 242 0.9 1.7 0.00 0.02 0.01 58 1017.6
20260831212454 78 225 0.9 1.7 0.00 0.02 0.01 58 1017.7
20260831212356 78 174 0.0 0.0 0.00 0.02 0.01 59 1017.7
20260831212236 78 174 0.0 0.0 0.00 0.02 0.01 56 1017.6
20260831212157 78 174 0.0 0.0 0.00 0.02 0.01 60 1017.6
20260831212059 78 174 0.0 0.0 0.00 0.02 0.01 60 1017.6
20260831212022 78 174 0.0 0.0 0.00 0.02 0.01 56 1017.7
20260831211828 78 174 0.0 1.7 0.00 0.02 0.01 57 1017.7
20260831211729 78 174 0.0 2.6 0.00 0.02 0.01 57 1017.7
20260831211632 78 174 0.0 2.6 0.00 0.02 0.01 56 1017.7
20260831211554 78 174 0.0 2.6 0.00 0.02 0.01 57 1017.8
20260831211338 78 174 0.0 2.6 0.00 0.02 0.01 57 1017.8
20260831211239 78 174 0.0 2.6 0.00 0.02 0.01 56 1017.8
20260831211142 78 174 0.9 2.6 0.00 0.02 0.01 55 1017.8
20260831211043 78 174 0.9 2.6 0.00 0.02 0.01 55 1017.9
20260831210942 79 174 1.7 2.6 0.00 0.02 0.01 53 1017.9
20260831210836 79 174 1.7 2.6 0.00 0.02 0.01 53 1017.9
20260831210737 79 174 1.7 2.6 0.00 0.02 0.01 53 1017.9
20260831210640 79 150 0.9 4.3 0.00 0.02 0.01 54 1017.9
20260831210540 79 182 0.9 4.3 0.00 0.02 0.01 56 1017.9
20260831210410 79 182 0.0 4.3 0.00 0.02 0.01 57 1017.9
20260831210324 79 182 0.0 4.3 0.00 0.02 0.01 56 1017.9
20260831210155 79 182 0.0 4.3 0.00 0.02 0.01 57 1017.9
20260831210117 79 182 0.0 4.3 0.00 0.02 0.01 57 1017.9
20260831205948 79 182 1.7 4.3 0.00 0.02 0.01 52 1018.0
20260831205840 79 182 2.6 4.3 0.00 0.02 0.01 54 1017.9
20260831205713 79 125 1.7 3.5 0.00 0.02 0.01 52 1017.9
20260831205636 79 144 1.7 3.5 0.00 0.02 0.01 53 1017.9
20260831205459 79 150 1.7 3.5 0.00 0.02 0.01 53 1017.9
20260831205421 79 124 0.9 3.5 0.00 0.02 0.01 54 1017.9
20260831205231 79 209 0.9 1.7 0.00 0.02 0.01 51 1018.0
20260831205146 79 209 0.9 2.6 0.00 0.02 0.01 51 1018.0
20260831205016 79 132 0.0 2.6 0.00 0.02 0.01 51 1017.9
20260831204938 79 132 0.0 2.6 0.00 0.02 0.01 51 1017.9
20260831204740 79 132 0.0 2.6 0.00 0.02 0.01 55 1017.9
20260831204700 79 132 0.0 2.6 0.00 0.02 0.01 52 1017.9
20260831204528 79 132 0.9 2.6 0.00 0.02 0.01 54 1017.9
20260831204443 79 132 0.9 2.6 0.00 0.02 0.01 54 1017.9
20260831204313 79 134 0.9 1.7 0.00 0.02 0.01 55 1017.8
20260831204236 79 152 0.9 1.7 0.00 0.02 0.01 54 1017.8
20260831204038 79 94 0.9 1.7 0.00 0.02 0.01 53 1017.9
20260831204000 79 94 0.9 1.7 0.00 0.02 0.01 51 1017.8
20260831203902 79 86 0.0 1.7 0.00 0.02 0.01 52 1017.8
20260831203824 79 86 0.0 0.9 0.00 0.02 0.01 52 1017.8
20260831203635 78 86 0.0 1.7 0.00 0.02 0.01 54 1017.8
20260831203514 78 86 0.0 1.7 0.00 0.02 0.01 53 1017.8
20260831203425 78 86 0.0 1.7 0.00 0.02 0.01 53 1017.8
20260831203348 78 86 0.0 1.7 0.00 0.02 0.01 53 1017.8
20260831203217 78 60 0.0 2.6 0.00 0.02 0.01 51 1017.8
20260831203134 78 60 0.0 2.6 0.00 0.02 0.01 51 1017.8
20260831202944 78 60 0.0 2.6 0.00 0.02 0.01 53 1017.9
20260831202859 78 60 0.9 2.6 0.00 0.02 0.01 51 1017.9
20260831202730 78 60 0.9 2.6 0.00 0.02 0.01 51 1017.9
20260831202631 78 76 0.9 2.6 0.00 0.02 0.01 51 1017.9
20260831202435 78 182 1.7 2.6 0.00 0.02 0.01 54 1017.9
20260831202341 78 212 1.7 2.6 0.00 0.02 0.01 56 1017.9
20260831202243 78 101 1.7 2.6 0.00 0.02 0.01 53 1017.9
20260831202205 78 103 1.7 2.6 0.00 0.02 0.01 53 1017.8
20260831202046 78 113 0.9 3.5 0.00 0.02 0.01 53 1017.8
20260831201940 78 154 0.0 3.5 0.00 0.02 0.01 51 1017.9
20260831201758 78 154 0.9 3.5 0.00 0.02 0.01 52 1017.8
20260831201658 78 154 1.7 4.3 0.00 0.02 0.01 53 1017.9
20260831201601 78 160 0.9 4.3 0.00 0.02 0.01 51 1017.9
20260831201523 78 169 1.7 4.3 0.00 0.02 0.01 55 1017.9
20260831201352 78 165 1.7 4.3 0.00 0.02 0.01 53 1018.0
20260831201306 78 194 1.7 5.2 0.00 0.02 0.01 57 1017.9
20260831201116 78 190 1.7 5.2 0.00 0.02 0.01 54 1018.0
20260831201042 78 175 1.7 5.2 0.00 0.02 0.01 54 1018.0
20260831200912 78 171 2.6 5.2 0.00 0.02 0.01 52 1017.9
20260831200827 78 187 2.6 5.2 0.00 0.02 0.01 51 1017.9
20260831200657 79 151 3.5 5.2 0.00 0.02 0.01 51 1017.9
20260831200619 79 174 3.5 5.2 0.00 0.02 0.01 51 1017.9
20260831200423 79 150 1.7 4.3 0.00 0.02 0.01 52 1017.9
20260831200344 79 213 1.7 3.5 0.00 0.02 0.01 52 1017.9
20260831200248 79 211 0.9 4.3 0.00 0.02 0.01 52 1018.0
20260831200129 79 278 0.9 4.3 0.00 0.02 0.01 53 1018.0
20260831200031 79 298 1.7 4.3 0.00 0.02 0.01 51 1018.0
20260831195936 79 313 1.7 4.3 0.00 0.02 0.01 53 1018.0
20260831195858 79 269 1.7 4.3 0.00 0.03 0.01 54 1018.1
20260831195800 79 308 1.7 4.3 0.00 0.03 0.01 52 1018.1
20260831195732 79 282 2.6 4.3 0.00 0.03 0.01 51 1018.1
20260831195602 79 271 1.7 4.3 0.00 0.03 0.01 54 1018.2
20260831195518 79 243 2.6 4.3 0.00 0.03 0.01 52 1018.2
20260831195328 79 267 1.7 4.3 0.00 0.03 0.01 52 1018.2
20260831195242 79 286 0.9 4.3 0.00 0.03 0.01 54 1018.3
20260831195142 79 198 0.9 4.3 0.00 0.03 0.01 52 1018.3
20260831195057 79 209 1.7 4.3 0.00 0.03 0.01 53 1018.4
20260831194958 79 209 2.6 4.3 0.00 0.03 0.01 52 1018.4
20260831194832 79 222 0.9 3.5 0.00 0.03 0.01 52 1018.4
20260831194725 79 226 1.7 3.5 0.00 0.03 0.01 52 1018.4
20260831194556 78 226 1.7 3.5 0.00 0.03 0.01 53 1018.5
20260831194518 78 177 0.9 3.5 0.00 0.03 0.01 52 1018.5
20260831194438 78 272 0.0 3.5 0.00 0.03 0.01 53 1018.5
20260831194320 78 272 0.9 3.5 0.00 0.03 0.01 52 1018.5
20260831194241 78 272 0.9 3.5 0.00 0.03 0.01 52 1018.5
20260831194110 78 31 0.9 3.5 0.00 0.03 0.01 51 1018.5
20260831194026 78 234 0.9 3.5 0.00 0.03 0.01 51 1018.5
20260831193856 78 234 1.7 3.5 0.00 0.03 0.01 51 1018.5
20260831193816 79 234 2.6 3.5 0.00 0.03 0.01 50 1018.6
20260831193658 79 239 2.6 3.5 0.00 0.03 0.01 54 1018.6
20260831193621 79 219 1.7 3.5 0.00 0.03 0.01 55 1018.6
20260831193436 79 304 0.9 2.6 0.00 0.03 0.01 53 1018.6
20260831193330 79 260 1.7 2.6 0.00 0.03 0.01 52 1018.7
20260831193251 78 252 0.9 2.6 0.00 0.03 0.01 52 1018.7
20260831193153 78 255 0.9 2.6 0.00 0.03 0.01 55 1018.7
20260831193052 78 167 0.0 2.6 0.00 0.03 0.01 53 1018.7
20260831193013 78 167 0.9 3.5 0.00 0.03 0.01 55 1018.6
20260831192855 78 109 0.9 3.5 0.00 0.03 0.01 58 1018.7
20260831192817 78 146 0.9 3.5 0.00 0.03 0.01 55 1018.7
20260831192647 78 146 0.9 3.5 0.00 0.03 0.01 55 1018.7
20260831192526 78 220 1.7 3.5 0.00 0.03 0.01 54 1018.7
20260831192430 78 220 1.7 3.5 0.00 0.03 0.01 55 1018.7
20260831192401 77 220 1.7 3.5 0.00 0.03 0.01 53 1018.7
20260831192224 77 217 1.7 3.5 0.00 0.03 0.01 54 1018.7
20260831192145 77 209 1.7 3.5 0.00 0.03 0.01 58 1018.8
20260831192014 77 101 0.9 2.6 0.00 0.03 0.01 55 1018.8
20260831191930 77 113 0.9 2.6 0.00 0.03 0.01 55 1018.8
20260831191759 77 113 0.9 2.6 0.00 0.03 0.01 56 1018.9
20260831191721 77 113 0.9 2.6 0.00 0.03 0.01 55 1018.9
20260831191549 77 113 0.0 2.6 0.00 0.03 0.01 58 1018.9
20260831191443 77 188 0.0 0.9 0.00 0.03 0.01 56 1018.9
20260831191408 76 188 0.0 0.9 0.00 0.03 0.01 57 1018.9
20260831191313 76 188 0.0 0.9 0.00 0.03 0.01 57 1018.9
20260831191234 76 188 0.0 0.9 0.00 0.03 0.01 57 1018.9
20260831191104 76 188 0.0 1.7 0.00 0.03 0.01 58 1018.9
20260831191020 76 188 0.0 1.7 0.00 0.03 0.01 55 1019.0
20260831190830 77 188 0.0 3.5 0.00 0.03 0.01 58 1019.0
20260831190723 77 188 0.0 3.5 0.00 0.03 0.01 57 1019.0
20260831190645 77 188 0.0 3.5 0.00 0.03 0.01 55 1019.0
20260831190600 77 188 0.0 3.5 0.00 0.03 0.01 59 1019.0
20260831190521 77 188 0.0 3.5 0.00 0.03 0.01 55 1019.0
20260831190351 77 188 0.9 3.5 0.00 0.03 0.01 55 1019.0
20260831190317 77 188 0.9 3.5 0.00 0.03 0.01 55 1019.0
20260831190141 77 188 2.6 3.5 0.00 0.03 0.01 55 1018.9
20260831190042 77 193 3.5 3.5 0.00 0.03 0.01 53 1018.9
20260831185947 78 150 2.6 4.3 0.00 0.03 0.01 56 1018.9
20260831185847 78 163 1.7 4.3 0.00 0.03 0.01 54 1018.9
20260831185716 78 189 0.9 4.3 0.00 0.03 0.01 54 1018.9
20260831185631 78 122 0.9 4.3 0.00 0.03 0.01 55 1018.9
20260831185502 78 155 1.7 4.3 0.00 0.03 0.01 55 1018.9
20260831185424 78 175 0.9 4.3 0.00 0.03 0.01 53 1018.9
20260831185254 78 181 0.9 4.3 0.00 0.03 0.01 55 1018.9
20260831185207 78 156 1.7 4.3 0.00 0.03 0.01 55 1018.9
20260831185015 78 123 1.7 5.2 0.00 0.03 0.01 56 1018.9
20260831184942 78 185 2.6 5.2 0.00 0.03 0.01 53 1018.9
20260831184724 78 155 1.7 4.3 0.00 0.03 0.01 55 1018.9
20260831184625 78 146 2.6 4.3 0.00 0.03 0.01 54 1018.9
20260831184540 78 144 1.7 4.3 0.00 0.03 0.01 54 1018.9
20260831184440 78 151 0.9 4.3 0.00 0.03 0.01 57 1018.9
20260831184344 78 326 0.9 7.0 0.00 0.03 0.01 55 1018.9
20260831184306 78 322 1.7 7.0 0.00 0.03 0.01 53 1018.9
20260831184135 78 355 1.7 7.0 0.00 0.03 0.01 57 1019.0
20260831184029 78 340 2.6 7.0 0.00 0.03 0.01 54 1019.0
20260831183858 78 360 2.6 7.0 0.00 0.03 0.01 58 1019.0
20260831183821 78 355 1.7 7.0 0.00 0.03 0.01 58 1019.0
20260831183627 78 360 1.7 7.0 0.00 0.03 0.01 57 1019.0
20260831183528 77 13 1.7 7.0 0.00 0.03 0.01 55 1019.0
20260831183441 77 26 0.9 3.5 0.00 0.03 0.01 59 1019.0
20260831183402 77 335 0.9 3.5 0.00 0.03 0.01 56 1018.9
20260831183226 77 157 0.9 3.5 0.00 0.03 0.01 57 1019.0
20260831183148 77 163 0.9 4.3 0.00 0.03 0.01 55 1019.0
20260831183018 77 146 1.7 4.3 0.00 0.03 0.01 53 1019.0
20260831182933 77 146 2.6 4.3 0.00 0.03 0.01 54 1019.0
20260831182752 77 196 0.9 6.1 0.00 0.03 0.01 53 1019.0
20260831182651 77 283 0.9 6.1 0.00 0.03 0.01 52 1019.0
20260831182541 77 245 0.9 7.8 0.00 0.03 0.01 55 1019.0
20260831182503 77 244 1.7 7.8 0.00 0.03 0.01 54 1019.0
20260831182306 77 194 2.6 7.8 0.00 0.03 0.01 56 1019.1
20260831182227 77 167 2.6 7.8 0.00 0.03 0.01 56 1019.1
20260831182038 77 123 3.5 7.8 0.00 0.03 0.01 55 1019.1
20260831181931 78 167 1.7 7.8 0.00 0.03 0.01 53 1019.1
20260831181833 78 286 3.5 7.8 0.00 0.03 0.01 52 1019.1
20260831181733 78 292 3.5 7.8 0.00 0.03 0.01 54 1019.1
20260831181544 77 334 1.7 4.3 0.00 0.03 0.01 52 1019.2
20260831181441 77 281 1.7 4.3 0.00 0.03 0.01 51 1019.2
20260831181328 77 281 1.7 4.3 0.00 0.03 0.01 51 1019.2
20260831181250 77 251 2.6 4.3 0.00 0.03 0.01 51 1019.2
20260831181121 77 217 0.9 4.3 0.00 0.03 0.01 52 1019.2
20260831181036 77 150 0.0 7.0 0.00 0.03 0.01 54 1019.2
20260831180905 77 136 1.7 7.0 0.00 0.03 0.01 52 1019.3
20260831180827 77 136 1.7 7.0 0.00 0.03 0.01 52 1019.3
20260831180631 77 332 1.7 7.0 0.00 0.03 0.01 54 1019.3
20260831180526 77 355 2.6 7.0 0.00 0.03 0.01 54 1019.3
20260831180450 77 346 2.6 7.0 0.00 0.03 0.01 52 1019.4
20260831180350 77 342 3.5 7.0 0.00 0.03 0.01 55 1019.5
20260831180312 77 301 4.3 7.0 0.00 0.03 0.01 54 1019.5
20260831180154 77 343 3.5 7.0 0.00 0.03 0.01 54 1019.5
20260831180117 77 323 1.7 5.2 0.00 0.03 0.01 52 1019.5
20260831175947 77 271 1.7 4.3 0.00 0.03 0.01 57 1019.5
20260831175823 77 334 2.6 7.0 0.00 0.03 0.01 57 1019.5
20260831175726 77 340 2.6 7.0 0.00 0.03 0.01 53 1019.5
20260831175648 77 327 3.5 7.0 0.00 0.03 0.01 55 1019.5
20260831175621 77 342 2.6 7.0 0.00 0.03 0.01 54 1019.5
20260831175427 77 319 2.6 8.7 0.00 0.03 0.01 54 1019.5
20260831175350 77 275 2.6 8.7 0.00 0.03 0.01 54 1019.5
20260831175232 77 215 3.5 8.7 0.00 0.03 0.01 53 1019.5
20260831175153 77 328 3.5 8.7 0.00 0.03 0.01 52 1019.6
20260831175116 77 22 3.5 8.7 0.00 0.03 0.01 54 1019.6
20260831175020 77 256 2.6 8.7 0.00 0.03 0.01 55 1019.6
20260831174943 77 290 2.6 8.7 0.00 0.03 0.01 55 1019.6
20260831174812 76 218 2.6 8.7 0.00 0.03 0.01 52 1019.5
20260831174728 76 251 4.3 8.7 0.00 0.03 0.01 55 1019.5
20260831174558 76 325 3.5 8.7 0.00 0.03 0.01 56 1019.5
20260831174456 76 331 2.6 5.2 0.00 0.03 0.01 54 1019.5
20260831174359 76 315 1.7 5.2 0.00 0.03 0.01 58 1019.6
20260831174244 76 155 0.9 5.2 0.00 0.03 0.01 60 1019.6
20260831174127 76 157 1.7 5.2 0.00 0.03 0.01 59 1019.5
20260831174047 76 125 1.7 5.2 0.00 0.03 0.01 58 1019.6
20260831173931 76 74 1.7 5.2 0.00 0.03 0.01 59 1019.6
20260831173833 76 133 2.6 6.1 0.00 0.03 0.01 58 1019.6
20260831173754 76 136 2.6 6.1 0.00 0.03 0.01 57 1019.6
20260831173657 76 150 2.6 6.1 0.00 0.03 0.01 56 1019.6
20260831173620 76 144 2.6 6.1 0.00 0.03 0.01 53 1019.6
20260831173449 76 173 0.9 6.1 0.00 0.03 0.01 56 1019.6
20260831173327 76 133 0.9 6.1 0.00 0.03 0.01 56 1019.6
20260831173230 76 133 1.7 6.1 0.00 0.03 0.01 59 1019.6
20260831173151 76 133 2.6 6.1 0.00 0.03 0.01 59 1019.7
20260831173112 76 134 3.5 6.1 0.00 0.03 0.01 59 1019.6
20260831173016 76 135 4.3 6.1 0.00 0.03 0.01 62 1019.7
20260831172937 76 129 4.3 6.1 0.00 0.03 0.01 61 1019.7
20260831172808 76 226 3.5 6.1 0.00 0.03 0.01 59 1019.6
20260831172722 76 225 3.5 5.2 0.00 0.03 0.01 59 1019.6
20260831172533 76 224 0.9 4.3 0.00 0.03 0.01 63 1019.7
20260831172448 76 329 0.0 4.3 0.00 0.03 0.01 64 1019.7
20260831172256 76 328 1.7 6.1 0.00 0.03 0.01 62 1019.7
20260831172201 76 328 2.6 6.1 0.00 0.03 0.01 63 1019.7
20260831172030 75 306 1.7 6.1 0.00 0.03 0.01 63 1019.7
20260831171925 75 325 0.9 6.1 0.00 0.03 0.01 63 1019.7
20260831171734 75 304 2.6 6.1 0.00 0.03 0.01 64 1019.6
20260831171650 75 299 1.7 6.1 0.00 0.03 0.01 63 1019.7
20260831171519 75 126 3.5 6.1 0.00 0.03 0.01 63 1019.7
20260831171420 75 148 4.3 7.0 0.00 0.03 0.01 63 1019.7
20260831171223 75 168 1.7 6.1 0.00 0.03 0.01 63 1019.7
20260831171144 75 183 2.6 6.1 0.00 0.03 0.01 61 1019.7
20260831171028 75 123 3.5 6.1 0.00 0.03 0.01 62 1019.6
20260831170953 75 146 2.6 5.2 0.00 0.03 0.01 64 1019.7
20260831170802 75 139 2.6 5.2 0.00 0.03 0.01 63 1019.7
20260831170716 75 153 2.6 5.2 0.00 0.03 0.01 63 1019.7
20260831170525 74 169 1.7 4.3 0.00 0.03 0.01 64 1019.7
20260831170419 74 159 0.9 4.3 0.00 0.03 0.01 63 1019.7
20260831170351 74 183 1.7 4.3 0.00 0.03 0.01 63 1019.8
20260831170255 74 174 2.6 4.3 0.00 0.03 0.01 63 1019.8
20260831170216 74 188 1.7 4.3 0.00 0.03 0.01 64 1019.8
20260831170046 74 248 1.7 3.5 0.00 0.03 0.01 64 1019.8
20260831165925 74 232 1.7 3.5 0.00 0.03 0.01 66 1019.8
20260831165830 74 219 1.7 6.1 0.00 0.03 0.01 67 1019.8
20260831165731 74 145 1.7 6.1 0.00 0.03 0.01 67 1019.8
20260831165542 73 254 1.7 6.1 0.00 0.03 0.01 66 1019.8
20260831165435 73 178 1.7 6.1 0.00 0.03 0.01 65 1019.8
20260831165357 73 272 1.7 6.1 0.00 0.03 0.01 67 1019.8
20260831165301 73 178 0.9 6.1 0.00 0.03 0.01 67 1019.8
20260831165223 73 159 1.7 6.1 0.00 0.03 0.01 67 1019.8
20260831165054 73 146 4.3 6.1 0.00 0.03 0.01 67 1019.8
20260831165009 73 161 4.3 7.0 0.00 0.03 0.01 68 1019.9
20260831164840 72 298 2.6 5.2 0.00 0.03 0.01 69 1019.9
20260831164744 72 257 1.7 5.2 0.00 0.03 0.01 69 1019.9
20260831164610 72 327 2.6 5.2 0.00 0.03 0.01 69 1019.9
20260831164524 72 315 2.6 5.2 0.00 0.03 0.01 68 1019.9
20260831164334 72 242 2.6 7.0 0.00 0.03 0.01 69 1020.0
20260831164248 72 176 1.7 7.0 0.00 0.03 0.01 69 1019.9
20260831164117 72 277 1.7 7.0 0.00 0.03 0.01 70 1020.0
20260831164040 72 277 1.7 7.0 0.00 0.03 0.01 69 1020.0
20260831163842 72 334 0.9 7.0 0.00 0.03 0.01 70 1019.9
20260831163803 72 308 0.9 7.0 0.00 0.03 0.01 70 1019.9
20260831163706 72 227 2.6 7.0 0.00 0.03 0.01 69 1020.0
20260831163629 73 218 3.5 7.0 0.00 0.03 0.01 69 1020.0
20260831163501 73 212 3.5 7.0 0.00 0.03 0.01 68 1020.0
20260831163416 73 187 2.6 6.1 0.00 0.03 0.01 67 1020.0
20260831163225 73 254 1.7 6.1 0.00 0.03 0.01 69 1020.0
20260831163141 73 224 1.7 6.1 0.00 0.03 0.01 69 1020.0
20260831163009 73 219 3.5 6.1 0.00 0.03 0.01 67 1020.1
20260831162932 73 200 2.6 6.1 0.00 0.03 0.01 66 1020.1
20260831162754 73 176 1.7 5.2 0.00 0.03 0.01 67 1020.1
20260831162716 73 176 2.6 5.2 0.00 0.03 0.01 65 1020.1
20260831162526 73 173 1.7 4.3 0.00 0.03 0.01 69 1020.1
20260831162440 73 217 1.7 4.3 0.00 0.03 0.01 68 1020.1
20260831162308 73 154 2.6 5.2 0.00 0.03 0.01 69 1020.1
20260831162234 73 159 2.6 5.2 0.00 0.03 0.01 69 1020.1
20260831162037 73 310 2.6 5.2 0.00 0.03 0.01 69 1020.2
20260831161958 73 325 1.7 5.2 0.00 0.03 0.01 69 1020.2
20260831161841 73 236 1.7 5.2 0.00 0.03 0.01 67 1020.2
20260831161802 73 242 1.7 7.8 0.00 0.03 0.01 70 1020.2
20260831161645 73 191 2.6 7.8 0.00 0.03 0.01 67 1020.3
20260831161546 73 265 2.6 7.8 0.00 0.03 0.01 67 1020.3
20260831161416 73 211 1.7 7.8 0.00 0.03 0.01 70 1020.3
20260831161330 73 221 0.9 7.8 0.00 0.03 0.01 69 1020.3
20260831161140 72 224 2.6 8.7 0.00 0.03 0.01 68 1020.4
20260831161104 73 223 5.2 8.7 0.00 0.03 0.01 66 1020.4
20260831160947 73 164 5.2 8.7 0.00 0.03 0.01 67 1020.4
20260831160907 73 172 4.3 8.7 0.00 0.03 0.01 67 1020.3
20260831160828 73 191 3.5 8.7 0.00 0.03 0.01 67 1020.3
20260831160709 73 184 4.3 8.7 0.00 0.03 0.01 68 1020.4
20260831160631 73 192 5.2 8.7 0.00 0.03 0.01 68 1020.4
20260831160433 73 155 4.3 8.7 0.00 0.03 0.01 70 1020.4
20260831160336 73 177 4.3 8.7 0.00 0.03 0.01 68 1020.4
20260831160239 73 248 3.5 7.0 0.00 0.03 0.01 67 1020.5
20260831160141 73 194 4.3 8.7 0.00 0.03 0.01 70 1020.5
20260831160010 73 273 2.6 6.1 0.00 0.03 0.01 69 1020.4
20260831155915 72 298 1.7 5.2 0.00 0.03 0.01 69 1020.5
20260831155737 72 251 1.7 5.2 0.00 0.03 0.01 70 1020.5
20260831155642 72 119 1.7 5.2 0.00 0.03 0.01 69 1020.5
20260831155524 72 303 1.7 5.2 0.00 0.03 0.01 69 1020.5
20260831155424 72 264 1.7 5.2 0.00 0.03 0.01 68 1020.5
20260831155346 72 245 1.7 5.2 0.00 0.03 0.01 68 1020.6
20260831155248 72 216 1.7 5.2 0.00 0.03 0.01 68 1020.6
20260831155148 73 284 2.6 5.2 0.00 0.03 0.01 68 1020.6
20260831155110 73 286 1.7 5.2 0.00 0.03 0.01 69 1020.6
20260831155017 73 149 0.9 5.2 0.00 0.03 0.01 70 1020.6
20260831154917 73 279 0.9 4.3 0.00 0.03 0.01 70 1020.5
20260831154746 73 298 1.7 4.3 0.00 0.03 0.01 69 1020.5
20260831154640 73 277 1.7 4.3 0.00 0.03 0.01 68 1020.5
20260831154525 73 342 0.9 4.3 0.00 0.03 0.01 70 1020.5
20260831154444 73 341 0.9 4.3 0.00 0.03 0.01 70 1020.5
20260831154406 73 19 1.7 4.3 0.00 0.03 0.01 70 1020.6
20260831154309 73 66 2.6 5.2 0.00 0.03 0.01 69 1020.5
20260831154232 73 236 2.6 5.2 0.00 0.03 0.01 69 1020.5
20260831154036 73 284 1.7 5.2 0.00 0.03 0.01 67 1020.5
20260831154001 73 259 2.6 5.2 0.00 0.03 0.01 67 1020.5
20260831153832 73 302 3.5 5.2 0.00 0.03 0.01 69 1020.5
20260831153732 73 298 3.5 5.2 0.00 0.03 0.01 69 1020.5
20260831153536 73 292 3.5 7.8 0.00 0.03 0.01 66 1020.5
20260831153456 73 290 2.6 7.8 0.00 0.03 0.01 68 1020.5
20260831153341 73 336 1.7 7.8 0.00 0.03 0.01 70 1020.5
20260831153249 73 324 0.9 7.8 0.00 0.03 0.01 69 1020.5
20260831153153 73 322 1.7 7.8 0.00 0.03 0.01 72 1020.5
20260831153036 73 319 1.7 7.8 0.00 0.03 0.01 68 1020.4
20260831152940 73 355 1.7 7.8 0.00 0.03 0.01 72 1020.4
20260831152905 73 332 2.6 7.8 0.00 0.03 0.01 68 1020.5
20260831152838 73 292 3.5 7.8 0.00 0.03 0.01 70 1020.5
20260831152708 73 327 2.6 7.0 0.00 0.03 0.01 69 1020.4
20260831152541 73 229 2.6 4.3 0.00 0.03 0.01 71 1020.4
20260831152426 73 161 1.7 4.3 0.00 0.03 0.01 71 1020.4
20260831152347 73 215 1.7 4.3 0.00 0.03 0.01 72 1020.4
20260831152319 73 15 1.7 4.3 0.00 0.03 0.01 75 1020.4
20260831152142 72 348 2.6 4.3 0.00 0.03 0.01 71 1020.4
20260831152043 72 360 2.6 4.3 0.00 0.03 0.01 75 1020.3
20260831151946 72 330 2.6 4.3 0.00 0.03 0.01 77 1020.4
20260831151913 72 321 1.7 4.3 0.00 0.03 0.01 75 1020.4
20260831151721 72 13 0.9 4.3 0.00 0.03 0.01 74 1020.5
20260831151637 72 117 0.0 4.3 0.00 0.03 0.01 75 1020.5
20260831151445 71 242 1.7 4.3 0.00 0.03 0.01 73 1020.5
20260831151344 71 242 2.6 4.3 0.00 0.03 0.01 72 1020.5
20260831151307 71 231 3.5 4.3 0.00 0.03 0.01 73 1020.5
20260831151209 72 218 1.7 4.3 0.00 0.03 0.01 74 1020.5
20260831151131 72 192 1.7 3.5 0.00 0.03 0.01 76 1020.5
20260831150934 71 10 1.7 3.5 0.00 0.03 0.01 74 1020.5
20260831150836 71 355 0.9 3.5 0.00 0.03 0.01 75 1020.5
20260831150740 71 260 0.9 3.5 0.00 0.03 0.01 74 1020.5
20260831150704 71 260 0.9 5.2 0.00 0.03 0.01 73 1020.5
20260831150513 71 61 1.7 7.0 0.00 0.03 0.01 73 1020.5
20260831150427 71 65 2.6 7.8 0.00 0.03 0.01 73 1020.5
20260831150236 71 68 2.6 7.8 0.00 0.03 0.01 73 1020.5
20260831150151 71 96 1.7 7.8 0.00 0.03 0.01 73 1020.5
20260831150020 71 5 1.7 7.8 0.00 0.03 0.01 72 1020.5
20260831145942 72 296 2.6 7.8 0.00 0.03 0.01 73 1020.4
20260831145723 72 317 3.5 7.8 0.00 0.03 0.01 72 1020.5
20260831145654 72 312 3.5 7.8 0.00 0.03 0.01 74 1020.5
20260831145539 72 321 1.7 7.8 0.00 0.03 0.01 74 1020.5
20260831145504 72 153 1.7 7.8 0.00 0.03 0.01 74 1020.5
20260831145313 72 355 1.7 7.8 0.00 0.03 0.01 75 1020.6
20260831145228 72 311 2.6 7.8 0.00 0.03 0.01 74 1020.6
20260831145037 72 304 3.5 7.8 0.00 0.03 0.01 74 1020.5
20260831144931 72 281 2.6 7.8 0.00 0.03 0.01 73 1020.5
20260831144825 72 324 1.7 7.8 0.00 0.03 0.01 75 1020.5
20260831144746 72 271 0.9 7.8 0.00 0.03 0.01 75 1020.6
20260831144616 72 209 1.7 7.8 0.00 0.03 0.01 74 1020.6
20260831144529 72 198 1.7 7.8 0.00 0.03 0.01 73 1020.6
20260831144359 72 161 2.6 7.8 0.00 0.03 0.01 74 1020.6
20260831144325 72 110 3.5 7.8 0.00 0.03 0.01 74 1020.6
20260831144127 71 296 3.5 7.8 0.00 0.03 0.01 74 1020.7
20260831144030 71 360 1.7 5.2 0.00 0.03 0.01 73 1020.7
20260831143941 71 78 0.9 4.3 0.00 0.03 0.01 73 1020.7
20260831143902 71 240 1.7 4.3 0.00 0.03 0.01 73 1020.7
20260831143725 71 305 1.7 4.3 0.00 0.03 0.01 75 1020.7
20260831143646 71 309 1.7 4.3 0.00 0.03 0.01 73 1020.6
20260831143608 71 302 0.9 3.5 0.00 0.03 0.01 73 1020.6
20260831143511 71 256 0.9 3.5 0.00 0.03 0.01 73 1020.6
20260831143432 71 115 0.9 3.5 0.00 0.03 0.01 73 1020.6
20260831143306 71 186 0.9 3.5 0.00 0.03 0.01 75 1020.7
20260831143221 71 126 1.7 3.5 0.00 0.03 0.01 75 1020.7
20260831143032 71 142 1.7 4.3 0.00 0.03 0.01 75 1020.7
20260831142946 71 111 1.7 4.3 0.00 0.03 0.01 74 1020.7
20260831142754 71 155 0.9 4.3 0.00 0.03 0.01 74 1020.7
20260831142715 71 156 1.7 4.3 0.00 0.03 0.01 74 1020.7
20260831142546 71 210 1.7 4.3 0.00 0.03 0.01 73 1020.7
20260831142440 71 283 1.7 4.3 0.00 0.03 0.01 73 1020.7
20260831142236 71 226 1.7 4.3 0.00 0.03 0.01 75 1020.7
20260831142158 71 155 1.7 3.5 0.00 0.03 0.01 75 1020.7
20260831142102 70 136 0.9 3.5 0.00 0.03 0.01 75 1020.7
20260831142024 70 155 0.9 3.5 0.00 0.03 0.01 75 1020.7
20260831141827 70 157 0.9 3.5 0.00 0.03 0.01 78 1020.8
20260831141728 70 140 1.7 3.5 0.00 0.03 0.01 77 1020.8
20260831141631 70 111 1.7 3.5 0.00 0.03 0.01 75 1020.8
20260831141552 70 101 1.7 3.5 0.00 0.03 0.01 75 1020.8
20260831141515 70 91 1.7 3.5 0.00 0.03 0.01 75 1020.8
20260831141327 70 94 1.7 3.5 0.00 0.03 0.01 75 1020.9
20260831141248 70 140 1.7 3.5 0.00 0.03 0.01 75 1020.9
20260831141133 70 162 1.7 2.6 0.00 0.03 0.01 76 1020.9
20260831141054 70 190 1.7 2.6 0.00 0.03 0.01 78 1020.9
20260831141021 69 128 1.7 2.6 0.00 0.03 0.01 77 1020.9
20260831140904 69 139 1.7 2.6 0.00 0.03 0.01 76 1020.9
20260831140825 69 115 1.7 2.6 0.00 0.03 0.01 76 1020.9
20260831140656 69 115 0.9 2.6 0.00 0.03 0.01 77 1020.9
20260831140610 69 115 1.7 3.5 0.00 0.03 0.01 77 1020.9
20260831140418 69 96 1.7 5.2 0.00 0.03 0.01 76 1020.9
20260831140340 69 111 1.7 5.2 0.00 0.03 0.01 77 1020.9
20260831140142 69 135 1.7 5.2 0.00 0.03 0.01 78 1021.0
20260831140007 69 110 1.7 5.2 0.00 0.03 0.01 78 1021.0
20260831135929 69 140 1.7 5.2 0.00 0.03 0.01 79 1021.0
20260831135759 69 127 2.6 5.2 0.00 0.03 0.01 77 1021.0
20260831135725 69 99 2.6 5.2 0.00 0.03 0.01 77 1021.0
20260831135528 69 128 1.7 3.5 0.00 0.03 0.01 82 1021.0
20260831135450 69 111 1.7 3.5 0.00 0.03 0.01 82 1020.9
20260831135355 69 112 1.7 3.5 0.00 0.03 0.01 81 1021.0
20260831135316 69 103 1.7 3.5 0.00 0.03 0.01 79 1021.0
20260831135147 69 103 1.7 3.5 0.00 0.03 0.01 77 1021.0
20260831135023 69 96 0.9 3.5 0.00 0.03 0.01 78 1021.0
20260831134928 69 105 0.9 2.6 0.00 0.03 0.01 77 1021.0
20260831134827 69 98 1.7 2.6 0.00 0.03 0.01 77 1021.0
20260831134752 69 98 0.9 2.6 0.00 0.03 0.01 77 1021.1
20260831134656 69 125 0.0 3.5 0.00 0.03 0.01 77 1021.1
20260831134556 69 151 0.0 3.5 0.00 0.03 0.01 79 1021.1
20260831134455 69 151 0.0 3.5 0.00 0.03 0.01 77 1021.1
20260831134358 69 123 0.0 3.5 0.00 0.03 0.01 76 1021.1
20260831134321 69 134 0.9 3.5 0.00 0.03 0.01 77 1021.0
20260831134151 69 133 0.9 3.5 0.00 0.03 0.01 79 1021.0
20260831134105 69 133 1.7 3.5 0.00 0.03 0.01 79 1021.1
20260831133915 69 116 1.7 3.5 0.00 0.03 0.01 77 1021.0
20260831133837 69 115 1.7 3.5 0.00 0.03 0.01 77 1021.0
20260831133658 69 123 1.7 3.5 0.00 0.03 0.01 78 1021.0
20260831133621 69 118 1.7 2.6 0.00 0.03 0.01 78 1021.1
20260831133435 69 17 0.9 2.6 0.00 0.03 0.01 80 1021.1
20260831133351 68 355 0.0 2.6 0.00 0.03 0.01 78 1021.0
20260831133159 68 355 0.9 2.6 0.00 0.03 0.01 78 1021.1
20260831133120 68 355 0.9 2.6 0.00 0.03 0.01 77 1021.0
20260831132942 68 355 0.9 2.6 0.00 0.03 0.01 79 1021.0
20260831132843 68 355 0.9 2.6 0.00 0.03 0.01 80 1021.1
20260831132748 68 355 0.9 2.6 0.00 0.03 0.01 79 1021.1
20260831132709 68 355 0.9 1.7 0.00 0.03 0.01 79 1021.1
20260831132517 68 355 0.9 1.7 0.00 0.03 0.01 79 1021.1
20260831132432 68 355 0.9 1.7 0.00 0.03 0.01 79 1021.1
20260831132228 68 355 0.9 1.7 0.00 0.03 0.01 80 1021.1
20260831132142 68 355 0.9 1.7 0.00 0.03 0.01 80 1021.2
20260831132011 68 355 0.9 2.6 0.00 0.03 0.01 81 1021.1
20260831131932 68 355 0.9 2.6 0.00 0.03 0.01 82 1021.1
20260831131734 67 355 0.0 2.6 0.00 0.03 0.01 81 1021.1
20260831131655 67 355 0.0 2.6 0.00 0.03 0.01 81 1021.1
20260831131601 67 355 0.0 2.6 0.00 0.03 0.01 80 1021.2
20260831131440 67 355 0.9 2.6 0.00 0.03 0.01 82 1021.2
20260831131344 67 355 0.9 2.6 0.00 0.03 0.01 82 1021.2
20260831131243 67 355 0.9 1.7 0.00 0.03 0.01 80 1021.2
20260831131053 67 355 0.9 1.7 0.00 0.03 0.01 81 1021.2
20260831131012 67 355 0.9 1.7 0.00 0.03 0.01 82 1021.2
20260831130841 66 355 0.9 2.6 0.00 0.03 0.01 82 1021.2
20260831130741 66 355 0.9 2.6 0.00 0.03 0.01 84 1021.2
20260831130610 66 355 0.9 2.6 0.00 0.03 0.01 82 1021.2
20260831130525 66 355 0.9 2.6 0.00 0.03 0.01 84 1021.2
20260831130336 66 355 0.9 2.6 0.00 0.03 0.01 82 1021.1
20260831130231 66 336 0.9 2.6 0.00 0.03 0.01 81 1021.2
20260831130153 65 336 0.9 2.6 0.00 0.03 0.01 81 1021.2
20260831130058 65 336 0.9 2.6 0.00 0.03 0.01 82 1021.2
20260831130021 65 336 0.9 3.5 0.00 0.03 0.01 85 1021.2
20260831125828 65 317 0.9 3.5 0.00 0.03 0.01 85 1021.2
20260831125728 65 344 0.9 3.5 0.00 0.03 0.01 85 1021.2
20260831125631 65 344 1.7 3.5 0.00 0.03 0.01 84 1021.3
20260831125532 65 344 1.7 3.5 0.00 0.03 0.01 85 1021.3
20260831125401 65 344 0.9 3.5 0.00 0.03 0.01 86 1021.2
20260831125316 64 344 1.7 3.5 0.00 0.03 0.01 86 1021.3
20260831125125 64 338 0.0 3.5 0.00 0.03 0.01 86 1021.3
20260831125026 64 338 0.9 3.5 0.00 0.03 0.01 86 1021.3
20260831124855 64 338 0.9 3.5 0.00 0.03 0.01 88 1021.3
20260831124736 64 337 0.9 3.5 0.00 0.03 0.01 88 1021.3
20260831124624 63 337 1.7 3.5 0.00 0.03 0.01 87 1021.3
20260831124545 63 341 0.9 3.5 0.00 0.03 0.01 88 1021.3
20260831124506 63 340 1.7 3.5 0.00 0.03 0.01 88 1021.3
20260831124348 63 346 1.7 3.5 0.00 0.03 0.01 85 1021.3
20260831124249 63 346 1.7 3.5 0.00 0.03 0.01 85 1021.3
20260831124119 63 30 0.9 1.7 0.00 0.03 0.01 87 1021.3
20260831124033 62 360 0.9 1.7 0.00 0.03 0.01 89 1021.3
20260831123913 62 360 0.9 1.7 0.00 0.03 0.01 90 1021.3
20260831123835 62 5 0.9 1.7 0.00 0.03 0.01 90 1021.3
20260831123707 62 49 0.0 0.9 0.00 0.03 0.01 89 1021.4
20260831123621 62 64 0.0 0.9 0.00 0.03 0.01 89 1021.4
20260831123431 61 80 0.0 0.9 0.00 0.03 0.01 89 1021.4
20260831123351 61 80 0.0 0.9 0.00 0.03 0.01 89 1021.4
20260831123220 61 80 0.0 0.9 0.00 0.03 0.01 88 1021.4
20260831123122 61 80 0.0 0.9 0.00 0.03 0.01 88 1021.4
20260831122925 61 80 0.0 0.9 0.00 0.03 0.01 89 1021.4
20260831122846 61 80 0.0 0.9 0.00 0.03 0.01 90 1021.4
20260831122750 61 80 0.0 0.9 0.00 0.03 0.01 90 1021.4
20260831122711 60 80 0.0 0.9 0.00 0.03 0.01 91 1021.5
20260831122519 60 80 0.0 1.7 0.00 0.03 0.01 91 1021.5
20260831122419 60 80 0.0 1.7 0.00 0.03 0.01 91 1021.5
20260831122223 60 80 0.0 1.7 0.00 0.03 0.01 90 1021.5
20260831122141 60 80 0.0 1.7 0.00 0.03 0.01 90 1021.5
20260831122043 60 80 0.9 1.7 0.00 0.03 0.01 90 1021.5
20260831121957 60 80 0.9 1.7 0.00 0.03 0.01 90 1021.5
20260831121929 60 80 0.9 1.7 0.00 0.03 0.01 90 1021.5
20260831121727 59 80 0.9 1.7 0.00 0.03 0.01 91 1021.6
20260831121622 59 80 0.9 1.7 0.00 0.03 0.01 91 1021.6
20260831121430 59 80 0.9 1.7 0.00 0.03 0.01 92 1021.5
20260831121345 59 80 0.0 1.7 0.00 0.03 0.01 92 1021.5
20260831121215 59 337 0.0 0.9 0.00 0.03 0.01 92 1021.5
20260831121136 59 326 0.0 0.0 0.00 0.03 0.01 92 1021.5
20260831121000 59 284 0.0 0.0 0.00 0.03 0.01 93 1021.5
20260831120925 59 284 0.0 0.0 0.00 0.03 0.01 93 1021.5
20260831120804 58 284 0.0 0.0 0.00 0.03 0.01 93 1021.5
20260831120726 58 284 0.0 0.0 0.00 0.03 0.01 93 1021.5
20260831120529 58 284 0.0 0.0 0.00 0.03 0.01 93 1021.5
20260831120450 58 15 0.0 0.0 0.00 0.03 0.01 93 1021.5
20260831120333 58 15 0.0 0.0 0.00 0.03 0.01 94 1021.5
20260831120252 58 15 0.0 0.0 0.00 0.03 0.01 94 1021.5
20260831120207 58 15 0.0 0.0 0.00 0.03 0.01 94 1021.5
20260831120107 58 15 0.0 0.0 0.00 0.03 0.01 94 1021.5
20260831120029 58 14 0.0 0.0 0.00 0.03 0.01 94 1021.5
20260831115834 58 360 0.0 0.0 0.00 0.03 0.01 94 1021.4
20260831115755 58 360 0.0 0.0 0.00 0.03 0.01 94 1021.4
20260831115659 58 360 0.0 0.0 0.00 0.03 0.01 95 1021.5
20260831115621 58 360 0.0 0.0 0.00 0.03 0.01 95 1021.5
20260831115423 57 360 0.0 0.0 0.00 0.03 0.01 95 1021.5
20260831115323 57 360 0.0 0.0 0.00 0.03 0.01 95 1021.5
20260831115226 57 360 0.0 0.0 0.00 0.03 0.01 95 1021.5
20260831115147 57 360 0.0 0.0 0.00 0.03 0.01 95 1021.5
20260831115015 57 360 0.0 0.0 0.00 0.03 0.01 95 1021.4
20260831114916 57 360 0.0 0.0 0.00 0.03 0.01 95 1021.4
20260831114733 57 360 0.0 0.0 0.00 0.03 0.01 95 1021.4
20260831114654 56 360 0.0 0.0 0.00 0.03 0.01 95 1021.3
20260831114539 56 360 0.0 0.0 0.00 0.03 0.01 95 1021.3
20260831114501 56 360 0.0 0.0 0.00 0.03 0.01 95 1021.3
20260831114252 56 360 0.0 0.0 0.00 0.03 0.01 95 1021.3
20260831114100 56 360 0.0 0.0 0.00 0.03 0.01 95 1021.3
20260831114020 56 360 0.0 0.0 0.00 0.03 0.01 95 1021.3
20260831113903 56 360 0.0 0.0 0.00 0.03 0.01 95 1021.2
20260831113805 56 360 0.0 0.0 0.00 0.03 0.01 95 1021.2
20260831113633 56 360 0.0 0.0 0.00 0.03 0.01 95 1021.2
20260831113534 56 360 0.0 0.0 0.00 0.03 0.01 95 1021.2
20260831113338 55 360 0.0 0.0 0.00 0.03 0.01 96 1021.2
20260831113259 55 360 0.0 0.0 0.00 0.03 0.01 96 1021.2
20260831113202 55 360 0.0 0.0 0.00 0.03 0.01 96 1021.2
20260831113042 55 360 0.0 0.0 0.00 0.03 0.01 96 1021.2
20260831112911 55 360 0.0 0.0 0.00 0.03 0.01 95 1021.2
20260831112827 55 360 0.0 0.0 0.00 0.03 0.01 96 1021.2
20260831112636 55 360 0.0 0.0 0.00 0.03 0.01 96 1021.2
20260831112552 55 360 0.0 0.0 0.00 0.03 0.01 96 1021.1
20260831112420 55 360 0.0 0.0 0.00 0.03 0.01 96 1021.1
20260831112320 55 360 0.0 0.0 0.00 0.03 0.01 95 1021.1
20260831112223 54 360 0.0 0.0 0.01 0.03 0.01 95 1021.1
20260831112123 54 360 0.0 0.0 0.01 0.03 0.01 96 1021.1
20260831111938 54 360 0.0 0.0 0.01 0.03 0.01 96 1021.2
20260831111852 54 360 0.0 0.0 0.01 0.03 0.01 95 1021.2
20260831111722 54 360 0.0 0.0 0.01 0.03 0.01 95 1021.1
20260831111622 54 360 0.0 0.0 0.01 0.03 0.01 95 1021.1
20260831111424 53 360 0.0 0.0 0.01 0.03 0.01 95 1021.2
20260831111345 53 360 0.0 0.0 0.01 0.03 0.01 95 1021.2
20260831111228 53 360 0.0 0.0 0.01 0.03 0.01 95 1021.2
20260831111151 53 360 0.0 0.0 0.01 0.03 0.01 95 1021.2
20260831110933 53 360 0.0 0.0 0.01 0.03 0.01 95 1021.1
20260831110858 53 360 0.0 0.0 0.01 0.03 0.01 95 1021.1
20260831110742 53 360 0.0 0.0 0.01 0.03 0.01 95 1021.1
20260831110637 53 329 0.0 0.0 0.01 0.03 0.01 95 1021.1
20260831110558 53 329 0.0 0.0 0.01 0.03 0.01 95 1021.1
20260831110519 53 329 0.0 0.0 0.01 0.03 0.01 95 1021.0
20260831110433 53 329 0.0 0.0 0.01 0.03 0.01 95 1021.0
20260831110243 53 329 0.0 0.0 0.01 0.03 0.01 95 1021.0
20260831110136 53 329 0.0 0.0 0.01 0.03 0.01 95 1021.0
20260831110057 53 329 0.0 0.0 0.01 0.03 0.01 95 1021.0
20260831110024 53 329 0.0 0.0 0.01 0.03 0.01 95 1021.0
20260831105826 53 329 0.0 0.0 0.01 0.03 0.01 95 1021.0
20260831105748 53 329 0.0 0.0 0.01 0.03 0.01 95 1021.0
20260831105632 53 329 0.0 0.0 0.01 0.03 0.01 95 1021.0
20260831105554 53 329 0.0 0.0 0.01 0.03 0.01 95 1021.0
20260831105336 53 329 0.0 0.0 0.01 0.03 0.01 95 1020.9
20260831105257 53 329 0.0 0.0 0.01 0.03 0.01 95 1021.0
20260831105200 53 329 0.0 0.0 0.01 0.03 0.01 95 1020.9
20260831105121 53 329 0.0 0.0 0.01 0.03 0.01 95 1020.9
20260831104951 53 329 0.0 0.0 0.01 0.03 0.01 95 1020.9
20260831104827 53 329 0.0 0.0 0.01 0.03 0.01 95 1020.8
20260831104749 53 329 0.0 0.0 0.01 0.03 0.01 95 1020.8
20260831104701 53 329 0.0 0.0 0.01 0.03 0.01 95 1020.7
20260831104624 53 329 0.0 0.0 0.01 0.03 0.01 95 1020.7
20260831104434 53 329 0.0 0.0 0.01 0.03 0.01 95 1020.7
20260831104328 53 329 0.0 0.0 0.01 0.03 0.01 95 1020.7
20260831104249 53 329 0.0 0.0 0.01 0.03 0.01 95 1020.7
20260831104152 53 329 0.0 0.0 0.01 0.03 0.01 95 1020.7
20260831104114 53 329 0.0 0.0 0.01 0.03 0.01 95 1020.7
20260831103944 53 329 0.0 0.0 0.01 0.03 0.01 95 1020.7
20260831103823 53 329 0.0 0.0 0.01 0.03 0.01 95 1020.7
20260831103715 53 329 0.0 0.0 0.01 0.03 0.01 95 1020.6
20260831103616 53 329 0.0 0.0 0.01 0.03 0.01 95 1020.6
20260831103446 53 329 0.0 0.0 0.01 0.03 0.01 95 1020.6
20260831103402 53 329 0.0 0.0 0.01 0.03 0.01 95 1020.6
20260831103230 53 329 0.0 0.0 0.01 0.03 0.01 95 1020.5
20260831103131 53 329 0.0 0.0 0.01 0.03 0.01 95 1020.5
20260831102954 53 329 0.0 0.0 0.01 0.03 0.01 95 1020.6
20260831102916 53 329 0.0 0.0 0.01 0.03 0.01 95 1020.6
20260831102727 53 329 0.0 0.0 0.01 0.03 0.01 95 1020.5
20260831102645 53 329 0.0 0.0 0.01 0.03 0.01 95 1020.5
20260831102515 53 329 0.0 0.0 0.01 0.03 0.01 95 1020.5
20260831102437 53 329 0.0 0.0 0.01 0.03 0.01 95 1020.5
20260831102239 53 329 0.0 0.0 0.00 0.02 0.00 95 1020.6
20260831102159 53 329 0.0 0.0 0.00 0.02 0.00 95 1020.5
20260831102103 53 329 0.0 0.0 0.00 0.02 0.00 95 1020.5
20260831102025 53 329 0.0 0.0 0.00 0.02 0.00 95 1020.5
20260831101827 53 329 0.0 0.0 0.00 0.02 0.00 95 1020.4
20260831101739 53 329 0.0 0.0 0.00 0.02 0.00 95 1020.5
20260831101628 53 329 0.0 0.0 0.00 0.02 0.00 95 1020.5
20260831101549 53 329 0.0 0.0 0.00 0.02 0.00 95 1020.5
20260831101420 53 329 0.0 0.0 0.00 0.02 0.00 95 1020.5
20260831101335 53 329 0.0 0.0 0.00 0.02 0.00 95 1020.6
20260831101124 53 329 0.0 0.0 0.00 0.02 0.00 95 1020.6
20260831101039 53 329 0.0 0.0 0.00 0.02 0.00 95 1020.5
20260831100941 53 329 0.0 0.0 0.00 0.02 0.00 95 1020.5
20260831100844 53 329 0.0 0.0 0.00 0.02 0.00 95 1020.5
20260831100804 53 329 0.0 0.0 0.00 0.02 0.00 95 1020.5
20260831100725 53 329 0.0 0.0 0.00 0.02 0.00 95 1020.5
20260831100607 53 329 0.0 0.0 0.00 0.02 0.00 95 1020.5
20260831100532 53 329 0.0 0.0 0.00 0.02 0.00 95 1020.5
20260831100335 53 329 0.0 0.0 0.00 0.02 0.00 95 1020.4
20260831100235 53 329 0.0 0.0 0.00 0.02 0.00 95 1020.4
20260831100139 53 329 0.0 0.0 0.00 0.02 0.00 95 1020.4
20260831100100 53 329 0.0 0.0 0.00 0.02 0.00 95 1020.4
20260831100020 53 329 0.0 0.0 0.00 0.02 0.00 95 1020.5
20260831095924 53 329 0.0 0.0 0.00 0.02 0.00 95 1020.4
20260831095825 53 329 0.0 0.0 0.00 0.02 0.00 95 1020.4
20260831095627 53 329 0.0 0.0 0.00 0.02 0.00 95 1020.4
20260831095541 53 329 0.0 0.0 0.00 0.02 0.00 95 1020.4
20260831095423 53 329 0.0 0.0 0.00 0.02 0.00 95 1020.4
20260831095344 53 329 0.0 0.0 0.00 0.02 0.00 95 1020.4
20260831095309 53 329 0.0 0.0 0.00 0.02 0.00 95 1020.4
20260831095210 53 329 0.0 0.0 0.00 0.02 0.00 95 1020.4
20260831095133 53 329 0.0 0.0 0.00 0.02 0.00 95 1020.4
20260831094935 53 329 0.0 0.0 0.00 0.02 0.00 95 1020.4
20260831094837 53 329 0.0 0.0 0.00 0.02 0.00 95 1020.3
20260831094742 53 329 0.0 0.0 0.00 0.02 0.00 95 1020.3
20260831094702 53 329 0.0 0.0 0.00 0.02 0.00 95 1020.3
20260831094606 53 329 0.0 0.0 0.00 0.02 0.00 95 1020.4
20260831094510 53 329 0.0 0.0 0.00 0.02 0.00 95 1020.3
20260831094431 53 329 0.0 0.0 0.00 0.02 0.00 95 1020.3
20260831094301 53 329 0.0 0.0 0.00 0.02 0.00 95 1020.3
20260831094216 53 329 0.0 0.0 0.00 0.02 0.00 95 1020.3
20260831094025 53 329 0.0 0.0 0.00 0.02 0.00 95 1020.3
20260831093926 53 329 0.0 0.0 0.00 0.02 0.00 95 1020.3
20260831093728 53 329 0.0 0.0 0.00 0.02 0.00 95 1020.3
20260831093649 53 329 0.0 0.0 0.00 0.02 0.00 95 1020.3
20260831093532 53 329 0.0 0.0 0.00 0.02 0.00 95 1020.3
20260831093453 53 329 0.0 0.0 0.00 0.02 0.00 94 1020.3
20260831093418 53 329 0.0 0.0 0.00 0.02 0.00 94 1020.3
20260831093258 53 329 0.0 0.0 0.00 0.02 0.00 94 1020.3
20260831093140 53 329 0.0 0.0 0.00 0.02 0.00 94 1020.2
20260831093043 53 329 0.0 0.0 0.00 0.02 0.00 94 1020.3
20260831093003 53 329 0.0 0.0 0.00 0.02 0.00 94 1020.3
20260831092923 54 329 0.0 0.0 0.00 0.02 0.00 94 1020.3
20260831092806 54 329 0.0 0.0 0.00 0.02 0.00 94 1020.3
20260831092728 54 329 0.0 0.0 0.00 0.02 0.00 94 1020.3
20260831092559 54 329 0.0 0.0 0.00 0.02 0.00 94 1020.2
20260831092513 54 329 0.0 0.0 0.00 0.02 0.00 94 1020.2
20260831092341 54 329 0.0 0.0 0.00 0.02 0.00 94 1020.2
20260831092240 54 329 0.0 0.0 0.00 0.02 0.00 94 1020.2
20260831092117 54 329 0.0 0.0 0.00 0.02 0.00 94 1020.2
20260831092030 54 329 0.0 0.0 0.00 0.02 0.00 94 1020.2
20260831091900 54 329 0.0 0.0 0.00 0.02 0.00 94 1020.1
20260831091823 54 329 0.0 0.0 0.00 0.02 0.00 94 1020.1
20260831091625 54 329 0.0 0.0 0.00 0.02 0.00 94 1020.1
20260831091548 54 329 0.0 0.0 0.00 0.02 0.00 94 1020.1
20260831091453 54 329 0.0 0.0 0.00 0.02 0.00 94 1020.1
20260831091334 54 329 0.0 0.0 0.00 0.02 0.00 94 1020.1
20260831091247 54 329 0.0 0.0 0.00 0.02 0.00 94 1020.1
20260831091216 54 329 0.0 0.0 0.00 0.02 0.00 94 1020.1
20260831090914 54 329 0.0 0.0 0.00 0.02 0.00 94 1020.1
20260831090744 54 329 0.0 0.0 0.00 0.02 0.00 94 1020.1
20260831090640 54 329 0.0 0.0 0.00 0.02 0.00 94 1020.1
20260831090602 54 329 0.0 0.0 0.00 0.02 0.00 94 1020.1
20260831090505 54 329 0.0 0.0 0.00 0.02 0.00 94 1020.1
20260831090405 54 329 0.0 0.0 0.00 0.02 0.00 94 1020.1
20260831090327 54 329 0.0 0.0 0.00 0.02 0.00 94 1020.1
20260831090139 54 329 0.0 0.0 0.00 0.02 0.00 94 1020.0
20260831090104 54 329 0.0 0.0 0.00 0.02 0.00 94 1020.0
20260831090008 54 329 0.0 0.0 0.00 0.02 0.00 94 1020.0
20260831085929 54 329 0.0 0.0 0.00 0.02 0.00 94 1020.0
20260831085800 54 329 0.0 0.0 0.00 0.02 0.00 94 1020.0
20260831085714 54 329 0.0 0.0 0.00 0.02 0.00 94 1020.0
20260831085544 54 329 0.0 0.0 0.00 0.02 0.00 94 1019.9
20260831085443 54 329 0.0 0.0 0.00 0.02 0.00 94 1019.9
20260831085313 55 329 0.0 0.0 0.00 0.02 0.00 94 1019.9
20260831085226 55 329 0.0 0.0 0.00 0.02 0.00 94 1019.9
20260831085035 55 329 0.0 0.0 0.00 0.02 0.00 94 1019.9
20260831084931 55 329 0.0 0.0 0.00 0.02 0.00 94 1019.9
20260831084856 55 329 0.0 0.0 0.00 0.02 0.00 94 1019.9
20260831084800 55 329 0.0 0.0 0.00 0.02 0.00 94 1019.9
20260831084721 55 329 0.0 0.0 0.00 0.02 0.00 94 1019.9
20260831084524 55 329 0.0 0.0 0.00 0.02 0.00 94 1019.9
20260831084425 55 329 0.0 0.0 0.00 0.02 0.00 94 1019.9
20260831084329 55 329 0.0 0.0 0.00 0.02 0.00 94 1019.9
20260831084249 55 329 0.0 0.0 0.00 0.02 0.00 94 1019.9
20260831084119 55 329 0.0 0.0 0.00 0.02 0.00 94 1019.9
20260831084032 55 329 0.0 0.0 0.00 0.02 0.00 94 1019.9
20260831083903 55 329 0.0 0.0 0.00 0.02 0.00 94 1019.9
20260831083824 55 329 0.0 0.0 0.00 0.02 0.00 94 1019.9
20260831083631 55 329 0.0 0.0 0.00 0.02 0.00 94 1019.9
20260831083533 55 329 0.0 0.0 0.00 0.02 0.00 94 1019.9
20260831083437 55 329 0.0 0.0 0.00 0.02 0.00 94 1019.9
20260831083358 55 329 0.0 0.0 0.00 0.02 0.00 94 1019.9
20260831083319 55 329 0.0 0.0 0.00 0.02 0.00 94 1019.9
20260831083201 55 329 0.0 0.0 0.00 0.02 0.00 94 1019.9
20260831083122 55 329 0.0 0.0 0.00 0.02 0.00 94 1019.9
20260831082925 55 329 0.0 0.0 0.00 0.02 0.00 94 1020.0
20260831082826 55 329 0.0 0.0 0.00 0.02 0.00 94 1019.9
20260831082733 55 329 0.0 0.0 0.00 0.02 0.00 94 1020.0
20260831082653 55 329 0.0 0.0 0.00 0.02 0.00 94 1020.0
20260831082523 55 329 0.0 0.0 0.00 0.02 0.00 94 1020.0
20260831082416 55 329 0.0 0.0 0.00 0.02 0.00 94 1020.0
20260831082224 55 329 0.0 0.0 0.00 0.02 0.00 94 1020.0
20260831082125 55 329 0.0 0.0 0.00 0.02 0.00 94 1020.0
20260831081928 56 329 0.0 0.0 0.00 0.02 0.00 94 1020.1
20260831081849 56 329 0.0 0.0 0.00 0.02 0.00 94 1020.0
20260831081743 56 329 0.0 0.0 0.00 0.02 0.00 94 1020.0
20260831081703 56 329 0.0 0.0 0.00 0.02 0.00 94 1020.0
20260831081625 56 329 0.0 0.0 0.00 0.02 0.00 94 1020.0
20260831081512 56 329 0.0 0.0 0.00 0.02 0.00 94 1020.0
20260831081432 56 329 0.0 0.0 0.00 0.02 0.00 94 1020.0
20260831081302 56 329 0.0 0.0 0.00 0.02 0.00 94 1020.0
20260831081217 56 329 0.0 0.0 0.00 0.02 0.00 94 1020.0
20260831081037 56 329 0.0 0.0 0.00 0.02 0.00 94 1020.0
20260831080950 56 329 0.0 0.0 0.00 0.02 0.00 94 1020.0
20260831080819 56 329 0.0 0.0 0.00 0.02 0.00 94 1020.0
20260831080740 56 329 0.0 0.0 0.00 0.02 0.00 94 1020.0
20260831080541 56 329 0.0 0.0 0.00 0.02 0.00 94 1019.9
20260831080503 56 329 0.0 0.0 0.00 0.02 0.00 94 1019.9
20260831080406 56 329 0.0 0.0 0.00 0.02 0.00 94 1019.9
20260831080330 56 329 0.0 0.0 0.00 0.02 0.00 94 1019.9
20260831080142 56 329 0.0 0.0 0.00 0.02 0.00 94 1019.9
20260831080034 56 329 0.0 0.0 0.00 0.02 0.00 94 1020.0
20260831075957 56 329 0.0 0.0 0.00 0.02 0.00 94 1019.9
20260831075900 56 329 0.0 0.0 0.00 0.02 0.00 94 1019.9
20260831075823 56 329 0.0 0.0 0.00 0.02 0.00 94 1019.9
20260831075631 56 329 0.0 0.0 0.00 0.02 0.00 94 1019.9
20260831075534 56 329 0.0 0.0 0.00 0.02 0.00 94 1019.9
20260831075343 56 329 0.0 0.0 0.00 0.02 0.00 94 1019.9
20260831075258 56 329 0.0 0.0 0.00 0.02 0.00 94 1019.9
20260831075130 56 329 0.0 0.0 0.00 0.02 0.00 94 1019.9
20260831075031 56 329 0.0 0.0 0.00 0.02 0.00 94 1019.9
20260831074852 56 329 0.0 0.0 0.00 0.02 0.00 94 1019.9
20260831074824 57 329 0.0 0.0 0.00 0.02 0.00 94 1019.9
20260831074654 57 329 0.0 0.0 0.00 0.02 0.00 94 1019.8
20260831074546 57 329 0.0 0.0 0.00 0.02 0.00 94 1019.9
20260831074335 57 329 0.0 0.0 0.00 0.02 0.00 94 1019.8
20260831074247 57 329 0.0 0.0 0.00 0.02 0.00 94 1019.8
20260831074118 57 329 0.0 0.0 0.00 0.02 0.00 94 1019.8
20260831074039 57 329 0.0 0.0 0.00 0.02 0.00 94 1019.7
20260831073848 57 329 0.0 0.0 0.00 0.02 0.00 94 1019.8
20260831073746 57 329 0.0 0.0 0.00 0.02 0.00 94 1019.7
20260831073708 57 329 0.0 0.0 0.00 0.02 0.00 94 1019.7
20260831073612 57 329 0.0 0.0 0.00 0.02 0.00 94 1019.7
20260831073533 57 329 0.0 0.0 0.00 0.02 0.00 94 1019.7
20260831073404 57 329 0.0 0.0 0.00 0.02 0.00 94 1019.7
20260831073319 57 329 0.0 0.0 0.00 0.02 0.00 94 1019.7
20260831073128 57 329 0.0 0.0 0.00 0.02 0.00 94 1019.6
20260831073042 57 329 0.0 0.0 0.00 0.02 0.00 94 1019.6
20260831072912 57 329 0.0 0.0 0.00 0.02 0.00 94 1019.6
20260831072834 57 329 0.0 0.0 0.00 0.02 0.00 94 1019.6
20260831072658 57 329 0.0 0.0 0.00 0.02 0.00 94 1019.6
20260831072619 57 329 0.0 0.0 0.00 0.02 0.00 94 1019.6
20260831072433 57 329 0.0 0.0 0.00 0.02 0.00 94 1019.6
20260831072329 57 329 0.0 0.0 0.00 0.02 0.00 94 1019.6
20260831072251 57 329 0.0 0.0 0.00 0.02 0.00 94 1019.6
20260831072154 57 329 0.0 0.0 0.00 0.02 0.00 94 1019.6
20260831072116 57 329 0.0 0.0 0.00 0.02 0.00 94 1019.6
20260831071946 57 329 0.0 0.0 0.00 0.02 0.00 94 1019.6
20260831071841 57 329 0.0 0.0 0.00 0.02 0.00 94 1019.6
20260831071723 57 329 0.0 0.0 0.00 0.02 0.00 94 1019.6
20260831071645 57 329 0.0 0.0 0.00 0.02 0.00 94 1019.5
20260831071519 57 329 0.0 0.0 0.00 0.02 0.00 94 1019.5
20260831071429 57 329 0.0 0.0 0.00 0.02 0.00 94 1019.5
20260831071240 58 329 0.0 0.0 0.00 0.02 0.00 94 1019.5
20260831071153 58 329 0.0 0.0 0.00 0.02 0.00 93 1019.5
20260831070942 58 329 0.0 0.0 0.00 0.02 0.00 93 1019.5
20260831070857 58 329 0.0 0.0 0.00 0.02 0.00 93 1019.5
20260831070716 58 329 0.0 0.0 0.00 0.02 0.00 93 1019.5
20260831070616 58 329 0.0 0.0 0.00 0.02 0.00 93 1019.5
20260831070446 58 329 0.0 0.0 0.00 0.02 0.00 93 1019.5
20260831070324 58 329 0.0 0.0 0.00 0.02 0.00 93 1019.4
20260831070228 58 329 0.0 0.0 0.00 0.02 0.00 93 1019.4
20260831070148 58 329 0.0 0.0 0.00 0.02 0.00 93 1019.4
20260831070018 58 329 0.0 0.0 0.00 0.02 0.00 94 1019.4
20260831065931 58 329 0.0 0.0 0.00 0.02 0.00 93 1019.4
20260831065801 58 329 0.0 0.0 0.00 0.02 0.00 94 1019.3
20260831065700 58 329 0.0 0.0 0.00 0.02 0.00 94 1019.4
20260831065541 58 329 0.0 0.0 0.00 0.02 0.00 94 1019.3
20260831065441 58 329 0.0 0.0 0.00 0.02 0.00 94 1019.3
20260831065310 58 329 0.0 0.0 0.00 0.02 0.00 94 1019.3
20260831065224 59 329 0.0 0.0 0.00 0.02 0.00 94 1019.3
20260831065033 59 329 0.0 0.0 0.00 0.02 0.00 94 1019.2
20260831064951 59 329 0.0 0.0 0.00 0.02 0.00 94 1019.2
20260831064820 59 329 0.0 0.0 0.00 0.02 0.00 94 1019.2
20260831064741 59 329 0.0 0.0 0.00 0.02 0.00 94 1019.3
20260831064549 59 329 0.0 0.0 0.00 0.02 0.00 93 1019.3
20260831064444 59 329 0.0 0.0 0.00 0.02 0.00 93 1019.2
20260831064406 59 329 0.0 0.0 0.00 0.02 0.00 93 1019.2
20260831064310 59 329 0.0 0.0 0.00 0.02 0.00 93 1019.2
20260831064231 59 329 0.0 0.0 0.00 0.02 0.00 93 1019.2
20260831064035 59 329 0.0 0.0 0.00 0.02 0.00 93 1019.2
20260831063937 59 329 0.0 0.0 0.00 0.02 0.00 93 1019.2
20260831063844 59 329 0.0 0.0 0.00 0.02 0.00 93 1019.2
20260831063805 59 329 0.0 0.0 0.00 0.02 0.00 93 1019.2
20260831063634 59 329 0.0 0.0 0.00 0.02 0.00 93 1019.2
20260831063527 59 329 0.0 0.0 0.00 0.02 0.00 93 1019.2
20260831063337 59 329 0.0 0.0 0.00 0.02 0.00 93 1019.2
20260831063250 60 329 0.0 0.0 0.00 0.02 0.00 93 1019.2
20260831063120 60 329 0.0 0.0 0.00 0.02 0.00 93 1019.2
20260831063021 60 329 0.0 0.0 0.00 0.02 0.00 93 1019.2
20260831062823 60 329 0.0 0.0 0.00 0.02 0.00 93 1019.3
20260831062743 60 329 0.0 0.0 0.00 0.02 0.00 93 1019.3
20260831062646 60 329 0.0 0.0 0.00 0.02 0.00 93 1019.3
20260831062530 60 329 0.0 0.0 0.00 0.02 0.00 94 1019.3
20260831062452 60 329 0.0 0.0 0.00 0.02 0.00 94 1019.3
20260831062355 60 329 0.0 0.9 0.00 0.02 0.00 94 1019.3
20260831062326 60 329 0.0 1.7 0.00 0.02 0.00 94 1019.3
20260831062135 60 329 0.0 1.7 0.00 0.02 0.00 94 1019.3
20260831062028 60 329 0.0 1.7 0.00 0.02 0.00 94 1019.3
20260831061857 60 329 0.0 1.7 0.00 0.02 0.00 94 1019.3
20260831061819 61 329 0.0 1.7 0.00 0.02 0.00 94 1019.3
20260831061641 61 329 0.0 1.7 0.00 0.02 0.00 94 1019.3
20260831061543 61 329 0.9 1.7 0.00 0.02 0.00 94 1019.3
20260831061429 61 329 0.9 2.6 0.00 0.02 0.00 94 1019.3
20260831061351 61 329 0.9 2.6 0.00 0.02 0.00 94 1019.3
20260831061314 61 329 0.9 2.6 0.00 0.02 0.00 94 1019.3
20260831061216 61 329 0.9 2.6 0.00 0.02 0.00 94 1019.3
20260831061136 61 329 0.9 2.6 0.00 0.02 0.00 94 1019.3
20260831061017 61 329 0.9 2.6 0.00 0.02 0.00 94 1019.3
20260831060931 61 329 0.9 2.6 0.00 0.02 0.00 94 1019.3
20260831060740 61 329 1.7 2.6 0.00 0.02 0.00 94 1019.3
20260831060654 61 329 1.7 2.6 0.00 0.02 0.00 94 1019.3
20260831060502 61 327 1.7 2.6 0.00 0.02 0.00 94 1019.4
20260831060424 61 327 1.7 2.6 0.00 0.02 0.00 94 1019.4
20260831060232 61 327 0.0 1.7 0.00 0.02 0.00 94 1019.4
20260831060152 61 327 0.0 0.0 0.00 0.02 0.00 94 1019.5
20260831060055 61 327 0.0 0.0 0.00 0.02 0.00 94 1019.5
20260831060016 61 327 0.0 0.0 0.00 0.02 0.00 94 1019.5
20260831055846 61 327 0.0 0.0 0.00 0.02 0.00 95 1019.5
20260831055740 61 327 0.0 0.0 0.00 0.02 0.00 95 1019.5
20260831055640 62 327 0.0 0.0 0.00 0.02 0.00 95 1019.5
20260831055533 62 327 0.0 0.0 0.00 0.02 0.00 95 1019.5
20260831055455 62 327 0.0 0.0 0.00 0.02 0.00 95 1019.5
20260831055323 62 327 0.0 0.0 0.00 0.02 0.00 95 1019.5
20260831055244 62 327 0.0 0.0 0.00 0.02 0.00 95 1019.5
20260831055127 62 327 0.0 0.0 0.00 0.02 0.00 95 1019.5
20260831055049 62 327 0.0 0.0 0.00 0.02 0.00 95 1019.5
20260831055010 62 327 0.0 0.0 0.00 0.02 0.00 95 1019.5
20260831054854 62 327 0.0 0.0 0.00 0.02 0.00 95 1019.5
20260831054815 62 327 0.0 0.0 0.00 0.02 0.00 95 1019.5
20260831054645 62 327 0.0 0.0 0.00 0.02 0.00 95 1019.5
20260831054541 62 327 0.0 0.0 0.00 0.02 0.00 95 1019.5
20260831054424 62 327 0.0 0.0 0.00 0.02 0.00 95 1019.6
20260831054346 62 327 0.0 0.0 0.00 0.02 0.00 95 1019.6
20260831054219 62 327 0.0 0.0 0.00 0.02 0.00 95 1019.6
20260831054131 62 327 0.0 0.0 0.00 0.02 0.00 95 1019.6
20260831054001 62 327 0.0 0.0 0.00 0.02 0.00 95 1019.6
20260831053842 62 327 0.0 0.0 0.00 0.02 0.00 95 1019.5
20260831053726 62 327 0.0 0.0 0.00 0.02 0.00 95 1019.5
20260831053647 62 327 0.0 0.0 0.00 0.02 0.00 95 1019.5
20260831053529 62 327 0.0 0.0 0.00 0.02 0.00 95 1019.5
20260831053450 62 327 0.0 0.0 0.00 0.02 0.00 95 1019.5
20260831053318 62 327 0.0 0.0 0.00 0.02 0.00 95 1019.5
20260831053233 62 327 0.0 0.0 0.00 0.02 0.00 95 1019.5
20260831053047 62 327 0.0 0.0 0.00 0.02 0.00 95 1019.5
20260831052942 62 327 0.0 0.0 0.00 0.02 0.00 95 1019.5
20260831052827 62 327 0.0 0.0 0.00 0.02 0.00 95 1019.5
20260831052747 62 327 0.0 0.0 0.00 0.02 0.00 95 1019.5
20260831052618 62 327 0.0 0.0 0.00 0.02 0.00 95 1019.5
20260831052531 62 327 0.0 0.0 0.00 0.02 0.00 95 1019.5
20260831052342 62 327 0.0 0.0 0.00 0.02 0.00 95 1019.5
20260831052237 62 327 0.0 0.0 0.00 0.02 0.00 95 1019.5
20260831052123 62 327 0.0 0.0 0.00 0.02 0.00 95 1019.4
20260831052045 62 327 0.0 0.0 0.00 0.02 0.00 95 1019.4
20260831051916 62 327 0.0 0.0 0.00 0.02 0.00 95 1019.4
20260831051830 62 327 0.0 0.0 0.00 0.02 0.00 95 1019.4
20260831051640 62 300 0.0 0.0 0.00 0.02 0.00 95 1019.4
20260831051553 62 300 0.0 0.0 0.00 0.02 0.00 95 1019.4
20260831051401 62 300 0.0 0.0 0.00 0.02 0.00 95 1019.5
20260831051242 62 300 0.0 0.0 0.00 0.02 0.00 95 1019.5
20260831051144 62 300 0.0 0.0 0.00 0.02 0.00 95 1019.5
20260831051107 62 300 0.0 0.0 0.00 0.02 0.00 95 1019.5
20260831051028 62 300 0.0 0.0 0.00 0.02 0.00 95 1019.5
20260831050914 62 300 0.0 0.0 0.00 0.02 0.00 95 1019.4
20260831050835 62 300 0.0 0.0 0.00 0.02 0.00 95 1019.4
20260831050705 62 300 0.0 0.0 0.00 0.02 0.00 95 1019.4
20260831050618 62 300 0.0 0.0 0.00 0.02 0.00 95 1019.4
20260831050429 62 300 0.0 0.0 0.00 0.02 0.00 95 1019.4
20260831050344 62 300 0.0 0.0 0.00 0.02 0.00 95 1019.4
20260831050213 62 300 0.0 0.0 0.00 0.02 0.00 95 1019.4
20260831050135 62 300 0.0 0.0 0.00 0.02 0.00 95 1019.4
20260831045938 62 300 0.0 0.0 0.00 0.02 0.00 95 1019.4
20260831045859 62 300 0.0 0.0 0.00 0.02 0.00 95 1019.4
20260831045725 62 300 0.0 0.0 0.00 0.02 0.00 95 1019.4
20260831045646 62 300 0.0 0.0 0.00 0.02 0.00 95 1019.4
20260831045428 62 300 0.0 0.0 0.00 0.02 0.00 95 1019.4
20260831045349 62 300 0.0 0.0 0.00 0.02 0.00 95 1019.4
20260831045251 62 300 0.0 0.0 0.00 0.02 0.00 95 1019.4
20260831045212 62 300 0.0 0.0 0.00 0.02 0.00 95 1019.4
20260831044930 62 300 0.0 0.0 0.00 0.02 0.00 95 1019.4
20260831044824 62 300 0.0 0.0 0.00 0.02 0.00 95 1019.4
20260831044653 62 300 0.0 0.0 0.00 0.02 0.00 95 1019.3
20260831044614 62 300 0.0 0.0 0.00 0.02 0.00 95 1019.4
20260831044456 62 300 0.0 0.0 0.00 0.02 0.00 95 1019.4
20260831044340 62 300 0.0 0.0 0.00 0.02 0.00 95 1019.4
20260831044301 62 300 0.0 0.0 0.00 0.02 0.00 95 1019.4
20260831044143 62 300 0.0 0.0 0.00 0.02 0.00 95 1019.4
20260831044038 62 300 0.0 0.0 0.00 0.02 0.00 95 1019.4
20260831043934 62 300 0.0 0.0 0.00 0.02 0.00 95 1019.4
20260831043835 62 300 0.0 0.0 0.00 0.02 0.00 95 1019.4
20260831043758 62 300 0.0 0.0 0.00 0.02 0.00 95 1019.4
20260831043701 62 300 0.0 0.0 0.00 0.02 0.00 95 1019.4
20260831043626 62 300 0.0 0.0 0.00 0.02 0.00 95 1019.4
20260831043429 62 300 0.0 0.0 0.00 0.02 0.00 95 1019.4
20260831043331 62 300 0.0 0.0 0.00 0.02 0.00 95 1019.5
20260831043234 62 300 0.0 0.0 0.00 0.02 0.00 95 1019.5
20260831043155 62 300 0.0 0.0 0.00 0.02 0.00 95 1019.5
20260831043005 62 300 0.0 0.0 0.00 0.02 0.00 95 1019.5
20260831042918 62 300 0.0 0.0 0.00 0.02 0.00 95 1019.5
20260831042728 62 300 0.0 0.0 0.00 0.02 0.00 95 1019.5
20260831042623 62 300 0.0 0.0 0.00 0.02 0.00 95 1019.5
20260831042523 62 300 0.0 0.0 0.00 0.02 0.00 95 1019.5
20260831042443 62 300 0.0 0.0 0.00 0.02 0.00 95 1019.4
20260831042313 62 300 0.0 0.0 0.00 0.02 0.00 95 1019.4
20260831042226 62 300 0.0 0.0 0.00 0.02 0.00 95 1019.4
20260831042056 62 300 0.0 0.0 0.00 0.02 0.00 95 1019.4
20260831042017 62 300 0.0 0.0 0.00 0.02 0.00 95 1019.3
20260831041846 62 300 0.0 0.0 0.00 0.02 0.00 95 1019.3
20260831041740 62 300 0.0 0.0 0.00 0.02 0.00 95 1019.3
20260831041640 62 300 0.0 0.0 0.00 0.02 0.00 95 1019.3
20260831041543 62 300 0.0 0.0 0.00 0.02 0.00 95 1019.3
20260831041503 62 300 0.0 0.0 0.00 0.02 0.00 95 1019.3
20260831041317 62 300 0.0 0.0 0.00 0.02 0.00 95 1019.2
20260831041230 62 300 0.0 0.0 0.00 0.02 0.00 95 1019.2
20260831041039 62 300 0.0 0.0 0.00 0.02 0.00 95 1019.2
20260831040939 62 300 0.0 0.0 0.00 0.02 0.00 95 1019.2
20260831040731 62 300 0.0 0.0 0.00 0.02 0.00 95 1019.1
20260831040652 62 300 0.0 0.0 0.00 0.02 0.00 95 1019.2
20260831040555 62 300 0.0 0.0 0.00 0.02 0.00 95 1019.1
20260831040515 62 300 0.0 0.0 0.00 0.02 0.00 95 1019.1
20260831040345 62 300 0.0 0.0 0.00 0.02 0.00 95 1019.1
20260831040259 62 300 0.0 0.0 0.00 0.02 0.00 95 1019.2
20260831040128 62 300 0.0 0.0 0.00 0.02 0.00 95 1019.1
20260831040028 62 300 0.0 0.0 0.00 0.02 0.00 95 1019.1
20260831035901 62 300 0.0 0.0 0.00 0.02 0.02 94 1019.2
20260831035816 62 300 0.0 0.0 0.00 0.02 0.02 94 1019.2
20260831035627 62 300 0.0 0.0 0.00 0.02 0.02 94 1019.1
20260831035522 62 300 0.0 0.0 0.00 0.02 0.02 94 1019.1
20260831035445 62 300 0.0 0.0 0.00 0.02 0.02 94 1019.1
20260831035350 62 300 0.0 0.0 0.00 0.02 0.02 94 1019.1
20260831035310 62 300 0.0 0.0 0.00 0.02 0.02 94 1019.1
20260831035211 62 300 0.0 0.0 0.00 0.02 0.02 94 1019.0
20260831035114 62 300 0.0 0.0 0.00 0.02 0.02 94 1019.0
20260831035035 62 300 0.0 0.0 0.00 0.02 0.02 94 1019.0
20260831034855 62 300 0.0 0.0 0.00 0.02 0.02 94 1019.0
20260831034751 62 300 0.0 0.0 0.00 0.02 0.02 94 1019.0
20260831034620 62 300 0.0 0.0 0.00 0.02 0.02 94 1019.0
20260831034541 62 300 0.0 0.0 0.00 0.02 0.02 94 1019.0
20260831034412 62 300 0.0 0.0 0.00 0.02 0.02 94 1018.9
20260831034316 62 300 0.0 0.0 0.00 0.02 0.02 94 1019.0
20260831034237 62 300 0.0 0.0 0.00 0.02 0.02 94 1019.0
20260831034108 62 300 0.0 0.0 0.00 0.02 0.02 94 1018.9
20260831034023 62 300 0.0 0.0 0.00 0.02 0.02 94 1018.9
20260831033852 62 300 0.0 0.0 0.00 0.02 0.02 94 1018.9
20260831033752 62 300 0.0 0.0 0.00 0.02 0.02 94 1018.9
20260831033636 62 300 0.0 0.0 0.00 0.02 0.02 94 1018.9
20260831033557 62 300 0.0 0.0 0.00 0.02 0.02 94 1018.8
20260831033423 62 300 0.0 0.0 0.00 0.02 0.02 94 1018.8
20260831033344 62 300 0.0 0.0 0.00 0.02 0.02 94 1018.8
20260831033126 62 300 0.0 0.0 0.00 0.02 0.02 94 1018.8
20260831033046 62 300 0.0 0.0 0.00 0.02 0.02 94 1018.9
20260831032930 62 300 0.0 0.0 0.00 0.02 0.02 94 1018.8
20260831032851 62 300 0.0 0.0 0.00 0.02 0.02 94 1018.9
20260831032721 63 300 0.0 0.0 0.00 0.02 0.02 94 1018.8
20260831032634 63 300 0.0 0.0 0.00 0.02 0.02 94 1018.8
20260831032445 63 300 0.0 0.0 0.00 0.02 0.02 95 1018.7
20260831032344 63 300 0.0 0.0 0.00 0.02 0.02 95 1018.8
20260831032306 63 300 0.0 0.0 0.00 0.02 0.02 94 1018.8
20260831032210 63 300 0.0 0.0 0.00 0.02 0.02 94 1018.8
20260831032130 63 300 0.0 0.0 0.00 0.02 0.02 94 1018.8
20260831032002 63 300 0.0 0.0 0.00 0.02 0.02 94 1018.8
20260831031918 63 300 0.0 0.0 0.00 0.02 0.02 94 1018.7
20260831031728 63 300 0.0 0.0 0.00 0.02 0.02 95 1018.7
20260831031642 63 300 0.0 0.0 0.00 0.02 0.02 95 1018.7
20260831031512 63 300 0.0 0.0 0.00 0.02 0.02 95 1018.6
20260831031433 63 300 0.0 0.0 0.00 0.02 0.02 95 1018.6
20260831031240 63 300 0.0 0.0 0.00 0.02 0.02 95 1018.6
20260831031140 63 300 0.0 0.0 0.00 0.02 0.02 95 1018.6
20260831031043 63 300 0.0 0.0 0.00 0.02 0.02 95 1018.6
20260831031003 63 300 0.0 0.0 0.00 0.02 0.02 95 1018.6
20260831030903 63 300 0.0 0.0 0.00 0.02 0.02 95 1018.7
20260831030807 62 300 0.0 0.0 0.00 0.02 0.02 95 1018.7
20260831030727 62 300 0.0 0.0 0.00 0.02 0.02 95 1018.7
20260831030557 62 300 0.0 0.0 0.00 0.02 0.02 95 1018.7
20260831030451 62 300 0.0 0.0 0.00 0.02 0.02 94 1018.7
20260831030240 62 300 0.0 0.0 0.00 0.02 0.02 95 1018.7
20260831030153 62 222 0.0 0.0 0.00 0.02 0.02 95 1018.7
20260831030055 62 222 0.0 0.0 0.00 0.02 0.02 95 1018.7
20260831030017 62 222 0.0 0.0 0.00 0.02 0.02 95 1018.7
20260831025932 62 222 0.0 0.0 0.00 0.02 0.02 95 1018.7
20260831025802 62 222 0.0 0.0 0.00 0.02 0.02 95 1018.7
20260831025701 62 222 0.0 0.0 0.00 0.02 0.02 95 1018.7
20260831025559 62 222 0.0 0.0 0.00 0.02 0.02 95 1018.6
20260831025502 62 222 0.0 0.0 0.00 0.02 0.02 95 1018.6
20260831025423 62 222 0.0 0.0 0.00 0.02 0.02 94 1018.6
20260831025253 62 222 0.0 0.0 0.00 0.02 0.02 94 1018.7
20260831025208 62 222 0.0 0.0 0.00 0.02 0.02 94 1018.7
20260831025038 62 222 0.0 0.0 0.00 0.02 0.02 94 1018.7
20260831024938 62 222 0.0 0.0 0.00 0.02 0.02 94 1018.7
20260831024745 62 222 0.0 0.0 0.00 0.02 0.02 94 1018.7
20260831024706 62 222 0.0 0.0 0.00 0.02 0.02 94 1018.7
20260831024610 62 222 0.0 0.0 0.00 0.02 0.02 94 1018.7
20260831024532 62 222 0.0 0.0 0.00 0.02 0.02 94 1018.7
20260831024335 62 222 0.0 0.0 0.00 0.02 0.02 94 1018.7
20260831024237 62 222 0.0 0.0 0.00 0.02 0.02 94 1018.7
20260831024140 62 222 0.0 0.0 0.00 0.02 0.02 94 1018.7
20260831024041 62 222 0.0 0.0 0.00 0.02 0.02 95 1018.7
20260831023946 62 222 0.0 0.0 0.00 0.02 0.02 94 1018.6
20260831023829 62 222 0.0 0.0 0.00 0.02 0.02 94 1018.6
20260831023751 62 222 0.0 0.0 0.00 0.02 0.02 94 1018.7
20260831023654 62 222 0.0 0.0 0.00 0.02 0.02 94 1018.6
20260831023616 62 222 0.0 0.0 0.00 0.02 0.02 94 1018.6
20260831023446 62 222 0.0 0.0 0.00 0.02 0.02 94 1018.6
20260831023340 62 222 0.0 0.0 0.00 0.02 0.02 94 1018.6
20260831023129 62 222 0.0 0.0 0.00 0.02 0.02 94 1018.6
20260831023044 62 222 0.0 0.0 0.00 0.02 0.02 94 1018.7
20260831022853 62 222 0.0 0.0 0.00 0.02 0.02 94 1018.7
20260831022754 62 222 0.0 0.0 0.00 0.02 0.02 94 1018.6
20260831022638 62 222 0.0 0.0 0.00 0.02 0.02 94 1018.7
20260831022602 62 222 0.0 0.0 0.00 0.02 0.02 94 1018.6
20260831022504 62 222 0.0 0.0 0.00 0.02 0.02 94 1018.7
20260831022405 62 222 0.0 0.0 0.00 0.02 0.02 94 1018.7
20260831022326 62 222 0.0 0.0 0.00 0.02 0.02 94 1018.7
20260831022130 62 222 0.0 0.0 0.00 0.02 0.02 94 1018.6
20260831022032 62 222 0.0 0.0 0.00 0.02 0.02 94 1018.6
20260831021936 62 222 0.0 0.0 0.00 0.02 0.02 93 1018.6
20260831021857 62 222 0.0 0.0 0.00 0.02 0.02 93 1018.6
20260831021726 63 222 0.0 0.0 0.00 0.02 0.02 94 1018.6
20260831021620 63 222 0.0 0.0 0.00 0.02 0.02 94 1018.5
20260831021450 63 222 0.0 0.0 0.00 0.02 0.02 94 1018.5
20260831021416 63 222 0.0 0.0 0.00 0.02 0.02 94 1018.5
20260831021240 63 222 0.0 0.0 0.00 0.02 0.02 94 1018.5
20260831021140 63 222 0.0 0.0 0.00 0.02 0.02 94 1018.5
20260831021045 63 222 0.0 0.0 0.00 0.02 0.02 94 1018.5
20260831021007 63 222 0.0 0.0 0.00 0.02 0.02 94 1018.5
20260831020928 63 222 0.0 0.0 0.00 0.02 0.02 93 1018.5
20260831020800 63 222 0.0 0.0 0.00 0.02 0.02 93 1018.5
20260831020732 63 222 0.0 0.0 0.00 0.02 0.02 93 1018.5
20260831020602 63 222 0.0 0.0 0.00 0.02 0.02 93 1018.4
20260831020502 63 222 0.0 0.0 0.00 0.02 0.02 93 1018.4
20260831020324 63 222 0.0 0.0 0.00 0.02 0.02 93 1018.4
20260831020238 63 222 0.0 0.0 0.00 0.02 0.02 93 1018.4
20260831020120 63 222 0.0 0.0 0.00 0.02 0.02 93 1018.4
20260831020041 63 222 0.0 0.0 0.00 0.02 0.02 93 1018.4
20260831015911 63 222 0.0 0.0 0.00 0.02 0.02 93 1018.4
20260831015826 63 222 0.0 0.0 0.00 0.02 0.02 93 1018.4
20260831015636 63 222 0.0 0.0 0.00 0.02 0.02 93 1018.3
20260831015551 63 222 0.0 0.0 0.00 0.02 0.02 93 1018.3
20260831015420 63 222 0.0 0.0 0.00 0.02 0.02 93 1018.3
20260831015320 63 222 0.0 0.0 0.00 0.02 0.02 93 1018.3
20260831015123 63 222 0.0 0.0 0.00 0.02 0.02 93 1018.3
20260831015040 63 222 0.0 0.0 0.00 0.02 0.02 93 1018.3
20260831014849 63 222 0.0 0.0 0.00 0.02 0.02 93 1018.2
20260831014809 63 222 0.0 0.0 0.00 0.02 0.02 93 1018.2
20260831014618 63 222 0.0 0.0 0.00 0.02 0.02 93 1018.2
20260831014531 63 222 0.0 0.0 0.00 0.02 0.02 93 1018.2
20260831014310 63 222 0.0 0.0 0.00 0.02 0.02 93 1018.2
20260831014231 63 222 0.0 0.0 0.00 0.02 0.02 93 1018.2
20260831014036 63 222 0.0 0.0 0.00 0.02 0.02 94 1018.2
20260831013957 64 222 0.0 0.0 0.00 0.02 0.02 94 1018.2
20260831013901 64 222 0.0 0.0 0.00 0.02 0.02 94 1018.2
20260831013822 64 222 0.0 0.0 0.00 0.02 0.02 94 1018.2
20260831013629 64 222 0.0 0.0 0.00 0.02 0.02 94 1018.2
20260831013530 64 222 0.0 0.0 0.00 0.02 0.02 94 1018.2
20260831013442 64 222 0.0 0.0 0.00 0.02 0.02 94 1018.1
20260831013342 64 222 0.0 0.0 0.00 0.02 0.02 94 1018.1
20260831013212 64 222 0.0 0.0 0.00 0.02 0.02 94 1018.1
20260831013126 64 222 0.0 0.0 0.00 0.02 0.02 94 1018.1
20260831012955 64 222 0.0 0.0 0.00 0.02 0.02 94 1018.1
20260831012916 64 222 0.0 0.0 0.00 0.02 0.02 93 1018.1
20260831012747 64 222 0.0 0.0 0.00 0.02 0.02 93 1018.1
20260831012641 64 222 0.0 0.0 0.00 0.02 0.02 93 1018.1
20260831012530 64 222 0.0 0.0 0.00 0.02 0.02 93 1018.0
20260831012452 64 222 0.0 0.0 0.00 0.02 0.02 93 1018.0
20260831012414 64 222 0.0 0.0 0.00 0.02 0.02 93 1017.9
20260831012316 64 222 0.0 0.0 0.00 0.02 0.02 93 1017.9
20260831012236 64 222 0.0 0.0 0.00 0.02 0.02 93 1017.9
20260831012107 64 222 0.0 0.0 0.00 0.02 0.02 93 1017.9
20260831012021 64 222 0.0 0.0 0.00 0.02 0.02 93 1017.9
20260831011831 64 222 0.0 0.0 0.00 0.02 0.02 93 1017.9
20260831011744 64 222 0.0 0.0 0.00 0.02 0.02 93 1017.9
20260831011614 64 222 0.0 0.0 0.00 0.02 0.02 93 1017.8
20260831011535 64 222 0.0 0.0 0.00 0.02 0.02 94 1017.8
20260831011357 64 222 0.0 0.0 0.00 0.02 0.02 94 1017.7
20260831011323 64 222 0.0 0.0 0.00 0.02 0.02 94 1017.7
20260831011134 64 222 0.0 0.0 0.00 0.02 0.02 93 1017.7
20260831011027 64 222 0.0 0.0 0.00 0.02 0.02 93 1017.8
20260831010941 64 222 0.0 0.0 0.00 0.02 0.02 93 1017.7
20260831010902 64 222 0.0 0.0 0.00 0.02 0.02 93 1017.7
20260831010824 64 222 0.0 0.0 0.00 0.02 0.02 93 1017.7
20260831010628 64 222 0.0 0.0 0.00 0.02 0.02 93 1017.7
20260831010530 64 222 0.0 0.0 0.00 0.02 0.02 93 1017.7
20260831010433 64 222 0.0 0.0 0.00 0.02 0.02 93 1017.6
20260831010359 64 222 0.0 0.0 0.00 0.02 0.02 93 1017.6
20260831010320 64 222 0.0 0.0 0.00 0.02 0.02 93 1017.6
20260831010124 64 222 0.0 0.0 0.00 0.02 0.02 93 1017.6
20260831010040 64 222 0.0 0.0 0.00 0.02 0.02 93 1017.6
20260831005848 64 222 0.0 0.0 0.00 0.02 0.02 93 1017.6
20260831005748 64 222 0.0 0.0 0.00 0.02 0.02 93 1017.6
20260831005652 65 222 0.0 0.0 0.00 0.02 0.02 93 1017.6
20260831005615 65 222 0.0 0.0 0.00 0.02 0.02 93 1017.6
20260831005444 65 222 0.0 0.0 0.00 0.02 0.02 93 1017.6
20260831005349 65 222 0.0 0.0 0.00 0.02 0.02 93 1017.6
20260831005218 65 222 0.0 0.0 0.00 0.02 0.02 94 1017.6
20260831005144 65 222 0.0 0.0 0.00 0.02 0.02 94 1017.6
20260831005014 65 222 0.0 0.0 0.00 0.02 0.02 94 1017.6
20260831004927 65 222 0.0 0.0 0.00 0.02 0.02 94 1017.6
20260831004737 65 222 0.0 0.0 0.00 0.02 0.02 94 1017.5
20260831004632 65 222 0.0 0.0 0.00 0.02 0.02 94 1017.5
20260831004553 65 222 0.0 0.0 0.00 0.02 0.02 94 1017.5
20260831004456 65 222 0.0 0.0 0.00 0.02 0.02 93 1017.5
20260831004357 65 222 0.0 0.0 0.00 0.02 0.02 93 1017.5
20260831004319 65 222 0.0 0.0 0.00 0.02 0.02 93 1017.5
20260831004222 65 222 0.0 0.0 0.00 0.02 0.02 93 1017.5
20260831004123 65 222 0.0 0.0 0.00 0.02 0.02 93 1017.5
20260831003956 65 222 0.0 0.0 0.00 0.02 0.02 93 1017.5
20260831003912 65 222 0.0 0.0 0.00 0.02 0.02 93 1017.5
20260831003732 65 222 0.0 0.0 0.00 0.02 0.02 93 1017.5
20260831003632 65 222 0.0 0.0 0.00 0.02 0.02 93 1017.5
20260831003503 65 222 0.0 0.0 0.00 0.02 0.02 93 1017.5
20260831003346 65 222 0.0 0.0 0.00 0.02 0.02 93 1017.5
20260831003307 65 222 0.0 0.0 0.00 0.02 0.02 93 1017.5
20260831003137 65 222 0.0 0.0 0.00 0.02 0.02 93 1017.5
20260831003030 65 222 0.0 0.0 0.00 0.02 0.02 93 1017.5
20260831002840 65 222 0.0 0.0 0.00 0.02 0.02 93 1017.5
20260831002736 65 222 0.0 0.0 0.00 0.02 0.02 93 1017.5
20260831002625 65 222 0.0 0.0 0.00 0.02 0.02 93 1017.4
20260831002526 65 222 0.0 0.0 0.00 0.02 0.02 93 1017.4
20260831002420 65 222 0.0 0.0 0.00 0.02 0.02 93 1017.4
20260831002325 65 222 0.0 0.0 0.00 0.02 0.02 93 1017.4
20260831002226 65 222 0.0 0.0 0.00 0.02 0.02 93 1017.4
20260831002131 65 222 0.0 0.0 0.00 0.02 0.02 93 1017.3
20260831002032 65 222 0.0 0.0 0.00 0.02 0.02 93 1017.3
20260831001840 65 222 0.0 0.0 0.00 0.02 0.02 93 1017.3
20260831001741 65 222 0.0 0.0 0.00 0.02 0.02 93 1017.3
20260831001625 65 222 0.0 0.0 0.00 0.02 0.02 93 1017.2
20260831001547 65 222 0.0 0.0 0.00 0.02 0.02 93 1017.2
20260831001430 65 222 0.0 0.0 0.00 0.02 0.02 93 1017.2
20260831001330 65 222 0.0 0.0 0.00 0.02 0.02 93 1017.2
20260831001134 65 222 0.0 0.0 0.00 0.02 0.02 93 1017.1
20260831001035 65 222 0.0 0.0 0.00 0.02 0.02 93 1017.1
20260831000922 65 222 0.0 0.0 0.00 0.02 0.02 93 1017.1
20260831000853 65 222 0.0 0.0 0.00 0.02 0.02 93 1017.0
20260831000754 65 222 0.0 0.0 0.00 0.02 0.02 93 1017.0
20260831000657 65 222 0.0 0.0 0.00 0.02 0.02 93 1017.0
20260831000619 65 222 0.0 0.0 0.00 0.02 0.02 93 1017.0
20260831000425 65 222 0.0 0.0 0.00 0.02 0.02 93 1017.0
20260831000325 65 222 0.0 0.0 0.00 0.02 0.02 93 1017.0
20260831000229 65 222 0.0 0.0 0.00 0.02 0.02 93 1017.0
20260831000150 65 222 0.0 0.0 0.00 0.02 0.02 93 1016.9
20260831000051 65 222 0.0 0.0 0.00 0.02 0.02 93 1016.9
20260830235952 65 222 0.0 0.0 0.00 0.02 0.02 93 1016.9
20260830235855 65 222 0.0 0.0 0.00 0.02 0.02 93 1016.9
20260830235817 65 222 0.0 0.0 0.00 0.02 0.02 93 1016.9
20260830235659 65 222 0.0 0.0 0.00 0.02 0.02 93 1016.9
20260830235621 65 222 0.0 0.0 0.00 0.02 0.02 93 1016.9
20260830235449 65 222 0.0 0.0 0.00 0.02 0.02 93 1016.8
20260830235324 66 222 0.0 0.0 0.00 0.02 0.02 93 1016.8
20260830235228 66 222 0.0 0.0 0.00 0.02 0.02 93 1016.9
20260830235148 66 222 0.0 0.0 0.00 0.02 0.02 93 1016.9
20260830235019 66 222 0.0 0.0 0.00 0.02 0.02 92 1016.8
20260830234912 66 222 0.0 0.0 0.00 0.02 0.02 93 1016.7
20260830234752 66 222 0.0 0.0 0.00 0.02 0.02 92 1016.7
20260830234718 66 222 0.0 0.0 0.00 0.02 0.02 92 1016.7
20260830234548 66 222 0.0 0.0 0.00 0.02 0.02 93 1016.7
20260830234424 66 222 0.0 0.0 0.00 0.02 0.02 93 1016.7
20260830234327 66 222 0.0 0.0 0.00 0.02 0.02 93 1016.6
20260830234247 66 222 0.0 0.0 0.00 0.02 0.02 93 1016.6
20260830234147 66 222 0.0 0.0 0.00 0.02 0.02 93 1016.6
20260830234052 66 222 0.0 0.0 0.00 0.02 0.02 93 1016.7
20260830233932 66 222 0.0 0.0 0.00 0.02 0.02 93 1016.6
20260830233836 66 222 0.0 0.0 0.00 0.02 0.02 93 1016.6
20260830233735 66 222 0.0 0.0 0.00 0.02 0.02 93 1016.6
20260830233608 66 222 0.0 0.0 0.00 0.02 0.02 92 1016.6
20260830233524 66 222 0.0 0.0 0.00 0.02 0.02 92 1016.6
20260830233354 66 222 0.0 0.0 0.00 0.02 0.02 92 1016.7
20260830233315 66 222 0.0 0.0 0.00 0.02 0.02 92 1016.6
20260830233230 66 222 0.0 0.0 0.00 0.02 0.02 92 1016.6
20260830233100 66 222 0.0 0.0 0.00 0.02 0.02 92 1016.6
20260830233021 66 222 0.0 0.0 0.00 0.02 0.02 92 1016.6
20260830232842 66 222 0.0 0.0 0.00 0.02 0.02 92 1016.5
20260830232743 66 222 0.0 0.0 0.00 0.02 0.02 92 1016.5
20260830232627 66 222 0.0 0.0 0.00 0.02 0.02 92 1016.5
20260830232548 66 138 0.0 0.0 0.00 0.02 0.02 92 1016.5
20260830232513 66 138 0.0 0.0 0.00 0.02 0.02 92 1016.4
20260830232418 66 138 0.0 0.0 0.01 0.02 0.02 92 1016.5
20260830232340 66 138 0.0 0.0 0.01 0.02 0.02 92 1016.5
20260830232210 66 138 0.0 0.0 0.01 0.02 0.02 92 1016.4
20260830232125 66 138 0.0 0.0 0.01 0.02 0.02 92 1016.4
20260830231955 66 138 0.0 0.0 0.01 0.02 0.02 92 1016.5
20260830231917 66 138 0.0 0.0 0.01 0.02 0.02 92 1016.5
20260830231740 66 175 0.0 0.0 0.01 0.02 0.02 92 1016.6
20260830231641 66 175 0.0 0.0 0.01 0.02 0.02 92 1016.6
20260830231546 66 175 0.0 0.0 0.01 0.02 0.02 92 1016.6
20260830231425 66 175 0.0 0.0 0.01 0.02 0.02 92 1016.7
20260830231333 66 175 0.0 0.0 0.01 0.02 0.02 92 1016.6
20260830231254 66 175 0.0 0.0 0.01 0.02 0.02 92 1016.7
20260830231103 66 175 0.0 0.0 0.01 0.02 0.02 92 1016.6
20260830230915 66 175 0.0 1.7 0.01 0.02 0.02 92 1016.6
20260830230831 66 175 0.0 1.7 0.01 0.02 0.02 92 1016.6
20260830230731 66 175 0.0 1.7 0.01 0.02 0.02 92 1016.6
20260830230514 66 175 0.0 1.7 0.01 0.02 0.02 92 1016.7
20260830230443 66 175 0.0 1.7 0.01 0.02 0.02 92 1016.6
20260830230347 66 175 0.0 1.7 0.01 0.02 0.02 92 1016.6
20260830230230 66 175 0.0 1.7 0.01 0.02 0.02 92 1016.6
20260830230151 67 175 0.9 1.7 0.01 0.02 0.02 92 1016.5
20260830230056 67 175 0.9 1.7 0.01 0.02 0.02 92 1016.6
20260830225956 66 175 0.9 1.7 0.01 0.02 0.02 92 1016.5
20260830225927 67 175 0.0 1.7 0.01 0.02 0.02 92 1016.5
20260830225729 67 138 0.0 0.0 0.01 0.02 0.02 92 1016.6
20260830225651 67 138 0.0 0.0 0.01 0.02 0.02 92 1016.6
20260830225554 67 138 0.0 0.0 0.01 0.02 0.02 92 1016.6
20260830225517 67 138 0.0 0.0 0.01 0.02 0.02 92 1016.7
20260830225346 67 138 0.0 0.0 0.01 0.02 0.02 92 1016.7
20260830225305 67 138 0.0 0.0 0.01 0.02 0.02 92 1016.7
20260830225114 67 138 0.0 0.0 0.01 0.02 0.02 92 1016.7
20260830225037 67 138 0.0 0.0 0.01 0.02 0.02 92 1016.7
20260830224837 67 138 0.0 0.0 0.01 0.02 0.02 92 1016.7
20260830224739 67 138 0.0 0.0 0.01 0.02 0.02 92 1016.7
20260830224625 67 138 0.0 0.0 0.01 0.02 0.02 92 1016.6
20260830224547 67 138 0.0 0.0 0.01 0.02 0.02 92 1016.6
20260830224509 67 138 0.0 0.0 0.01 0.02 0.02 92 1016.6
20260830224413 67 138 0.0 0.0 0.01 0.02 0.02 92 1016.6
20260830224312 67 138 0.0 0.0 0.01 0.02 0.02 92 1016.6
20260830224212 67 138 0.0 0.0 0.01 0.02 0.02 92 1016.6
20260830224116 67 138 0.0 0.0 0.01 0.02 0.02 92 1016.6
20260830224041 67 138 0.0 0.0 0.01 0.02 0.02 92 1016.6
20260830223911 67 138 0.0 0.0 0.01 0.02 0.02 92 1016.6
20260830223835 67 138 0.0 0.0 0.01 0.02 0.02 92 1016.6
20260830223705 67 138 0.0 0.0 0.01 0.02 0.02 92 1016.7
20260830223626 67 138 0.0 0.0 0.01 0.02 0.02 91 1016.7
20260830223430 67 138 0.0 0.0 0.01 0.02 0.02 91 1016.7
20260830223351 67 138 0.0 0.0 0.01 0.02 0.02 91 1016.7
20260830223234 67 138 0.0 0.0 0.01 0.02 0.02 91 1016.7
20260830223156 67 138 0.0 0.0 0.01 0.02 0.02 91 1016.7
20260830222922 67 138 0.0 0.0 0.01 0.02 0.02 91 1016.7
20260830222846 67 138 0.0 0.0 0.01 0.02 0.02 91 1016.7